LU6FG Weather Reports


time (UTC)temp
F
wind
direction
speed
knots
gust
knots
rain 1hr
in
rain 24hr
in
rain mn
in
humidity
%
barometer
mb
20260505173408 78 28 2.6 3.5 0.00 0.00 0.00 83 1010.8
20260505173308 78 30 1.7 3.5 0.00 0.00 0.00 84 1010.9
20260505173208 78 32 1.7 3.5 0.00 0.00 0.00 84 1010.9
20260505173108 78 35 1.7 3.5 0.00 0.00 0.00 84 1010.9
20260505173009 78 37 1.7 3.5 0.00 0.00 0.00 84 1010.8
20260505172908 78 39 1.7 3.5 0.00 0.00 0.00 84 1010.8
20260505172830 78 39 1.7 3.5 0.00 0.00 0.00 84 1010.8
20260505172708 77 37 1.7 1.7 0.00 0.00 0.00 85 1010.9
20260505172608 77 33 1.7 3.5 0.00 0.00 0.00 85 1010.9
20260505172508 77 31 0.9 3.5 0.00 0.00 0.00 85 1011.0
20260505172408 77 28 0.9 3.5 0.00 0.00 0.00 85 1011.0
20260505172329 77 25 0.9 3.5 0.00 0.00 0.00 85 1010.9
20260505172209 77 22 1.7 3.5 0.00 0.00 0.00 85 1010.9
20260505172108 77 23 0.0 3.5 0.00 0.00 0.00 85 1010.9
20260505172008 77 25 0.0 3.5 0.00 0.00 0.00 85 1010.9
20260505171908 77 24 0.0 3.5 0.00 0.00 0.00 85 1011.0
20260505171808 77 24 1.7 3.5 0.00 0.00 0.00 85 1010.8
20260505171708 77 23 1.7 3.5 0.00 0.00 0.00 85 1010.8
20260505171608 77 26 1.7 3.5 0.00 0.00 0.00 85 1011.1
20260505171508 77 28 0.9 1.7 0.00 0.00 0.00 86 1011.0
20260505171408 77 31 0.9 1.7 0.00 0.00 0.00 86 1011.0
20260505171330 77 33 1.7 1.7 0.00 0.00 0.00 86 1010.9
20260505171208 77 36 0.9 1.7 0.00 0.00 0.00 86 1010.8
20260505171108 77 37 0.9 1.7 0.00 0.00 0.00 86 1010.9
20260505171029 77 37 0.9 1.7 0.00 0.00 0.00 86 1010.9
20260505170908 76 39 1.7 1.7 0.00 0.00 0.00 86 1010.9
20260505170808 76 42 0.9 1.7 0.00 0.00 0.00 86 1010.9
20260505170708 76 45 0.9 1.7 0.00 0.00 0.00 86 1010.8
20260505170629 76 45 0.9 1.7 0.00 0.00 0.00 86 1010.8
20260505170508 76 45 0.9 3.5 0.00 0.00 0.00 87 1010.8
20260505170408 76 43 1.7 3.5 0.00 0.00 0.00 86 1011.0
20260505170308 76 44 1.7 3.5 0.00 0.00 0.00 87 1011.1
20260505170230 76 45 1.7 3.5 0.00 0.00 0.00 87 1011.1
20260505170109 76 45 1.7 3.5 0.00 0.00 0.00 87 1011.1
20260505170009 76 42 0.9 3.5 0.00 0.00 0.00 87 1011.1
20260505165908 76 39 0.9 3.5 0.00 0.00 0.00 87 1011.1
20260505165808 76 36 0.9 3.5 0.00 0.00 0.00 87 1011.0
20260505165730 76 35 0.9 3.5 0.00 0.00 0.00 87 1011.0
20260505165608 76 32 1.7 3.5 0.00 0.00 0.00 87 1010.9
20260505165508 76 31 0.9 3.5 0.00 0.00 0.00 88 1010.9
20260505165429 76 31 0.9 3.5 0.00 0.00 0.00 88 1010.9
20260505165308 76 28 1.7 3.5 0.00 0.00 0.00 88 1010.8
20260505165208 76 25 1.7 5.2 0.00 0.00 0.00 88 1010.9
20260505165108 76 25 1.7 5.2 0.00 0.00 0.00 88 1010.8
20260505165008 76 25 2.6 6.1 0.00 0.00 0.00 88 1010.9
20260505164908 76 23 2.6 6.1 0.00 0.00 0.00 88 1010.9
20260505164808 76 23 1.7 6.1 0.00 0.00 0.00 88 1011.2
20260505164708 75 25 1.7 6.1 0.00 0.00 0.00 88 1011.1
20260505164608 75 28 1.7 6.1 0.00 0.00 0.00 88 1011.1
20260505164508 75 27 2.6 6.1 0.00 0.00 0.00 88 1011.1
20260505164429 75 26 1.7 6.1 0.00 0.00 0.00 88 1011.2
20260505164308 75 26 1.7 6.1 0.00 0.00 0.00 88 1011.4
20260505164208 75 25 3.5 6.1 0.00 0.00 0.00 88 1011.2
20260505164108 75 24 2.6 6.1 0.00 0.00 0.00 88 1011.3
20260505164029 75 23 3.5 6.1 0.00 0.00 0.00 88 1011.4
20260505163908 75 26 2.6 6.1 0.00 0.00 0.00 88 1011.4
20260505163808 75 26 2.6 6.1 0.00 0.00 0.00 88 1011.4
20260505163708 75 24 3.5 6.1 0.00 0.00 0.00 88 1011.4
20260505163608 75 20 3.5 6.1 0.00 0.00 0.00 88 1011.4
20260505163509 75 18 2.6 6.1 0.00 0.00 0.00 89 1011.2
20260505163430 75 17 2.6 6.1 0.00 0.00 0.00 89 1011.2
20260505163308 75 15 3.5 5.2 0.00 0.00 0.00 89 1011.3
20260505163209 75 16 2.6 3.5 0.00 0.00 0.00 89 1011.5
20260505163108 75 16 1.7 3.5 0.00 0.00 0.00 89 1011.4
20260505163009 75 14 1.7 3.5 0.00 0.00 0.00 89 1011.3
20260505162909 75 11 1.7 3.5 0.00 0.00 0.00 89 1011.4
20260505162830 75 10 1.7 3.5 0.00 0.00 0.00 89 1011.4
20260505162709 75 14 1.7 3.5 0.00 0.00 0.00 89 1011.3
20260505162608 75 12 1.7 3.5 0.00 0.00 0.00 89 1011.5
20260505162508 75 15 0.0 1.7 0.00 0.00 0.00 90 1011.5
20260505162408 75 12 0.0 1.7 0.00 0.00 0.00 90 1011.6
20260505162330 75 14 0.9 3.5 0.00 0.00 0.00 90 1011.5
20260505162208 74 21 0.0 3.5 0.00 0.00 0.00 90 1011.7
20260505162108 74 21 0.9 3.5 0.00 0.00 0.00 90 1011.6
20260505162029 74 25 0.0 3.5 0.00 0.00 0.00 90 1011.7
20260505161909 74 22 1.7 3.5 0.00 0.00 0.00 90 1011.6
20260505161808 74 25 0.9 3.5 0.00 0.00 0.00 90 1011.5
20260505161708 74 27 1.7 3.5 0.00 0.00 0.00 90 1011.6
20260505161629 74 30 1.7 5.2 0.00 0.00 0.00 90 1011.6
20260505161529 74 33 1.7 5.2 0.00 0.00 0.00 90 1011.5
20260505161408 74 35 1.7 5.2 0.00 0.00 0.00 90 1011.8
20260505161330 74 36 1.7 5.2 0.00 0.00 0.00 91 1011.7
20260505161208 74 35 2.6 5.2 0.00 0.00 0.00 90 1011.6
20260505161109 74 34 3.5 5.2 0.00 0.00 0.00 91 1011.7
20260505161008 74 31 1.7 5.2 0.00 0.00 0.00 91 1011.7
20260505160909 74 32 1.7 5.2 0.00 0.00 0.00 91 1011.6
20260505160830 74 31 2.6 5.2 0.00 0.00 0.00 91 1011.6
20260505160708 74 29 3.5 5.2 0.00 0.00 0.00 91 1011.6
20260505160630 74 29 3.5 6.1 0.00 0.00 0.00 91 1011.6
20260505160508 73 25 2.6 6.1 0.00 0.00 0.00 91 1011.8
20260505160408 73 26 1.7 6.1 0.00 0.00 0.00 91 1011.7
20260505160308 73 25 2.6 6.1 0.00 0.00 0.00 91 1011.7
20260505160208 73 26 3.5 6.1 0.00 0.00 0.00 91 1011.9
20260505160108 73 26 1.7 6.1 0.00 0.00 0.00 91 1011.8
20260505153309 72 35 1.7 6.1 0.00 0.00 0.00 92 1011.9
20260505153208 72 35 3.5 6.1 0.00 0.00 0.00 92 1011.8
20260505153108 72 34 3.5 6.1 0.00 0.00 0.00 92 1011.9
20260505153009 72 36 3.5 6.1 0.00 0.00 0.00 92 1012.0
20260505152908 72 35 3.5 6.1 0.00 0.00 0.00 92 1012.0
20260505152829 72 34 3.5 5.2 0.00 0.00 0.00 93 1012.0
20260505152708 72 37 0.9 3.5 0.00 0.00 0.00 93 1011.9
20260505152608 72 40 0.9 3.5 0.00 0.00 0.00 93 1011.9
20260505152508 72 43 1.7 3.5 0.00 0.00 0.00 93 1012.1
20260505152408 72 45 2.6 5.2 0.00 0.00 0.00 93 1012.1
20260505152308 72 42 1.7 5.2 0.00 0.00 0.00 93 1012.1
20260505152230 72 41 1.7 6.1 0.00 0.00 0.00 93 1012.1
20260505152108 72 38 1.7 6.1 0.00 0.00 0.00 93 1011.9
20260505152009 72 35 1.7 6.1 0.00 0.00 0.00 93 1012.0
20260505151929 72 32 1.7 6.1 0.00 0.00 0.00 93 1012.0
20260505151831 72 28 1.7 6.1 0.00 0.00 0.00 93 1011.8
20260505151708 72 24 2.6 6.1 0.00 0.00 0.00 93 1011.8
20260505151609 72 22 2.6 6.1 0.00 0.00 0.00 93 1012.0
20260505151508 72 17 2.6 6.1 0.00 0.00 0.00 93 1011.8
20260505151408 72 15 2.6 6.1 0.00 0.00 0.00 93 1012.0
20260505151308 72 16 1.7 6.1 0.00 0.00 0.00 93 1012.0
20260505151208 72 11 2.6 6.1 0.00 0.00 0.00 93 1012.1
20260505151108 72 12 1.7 5.2 0.00 0.00 0.00 93 1012.1
20260505151008 72 9 1.7 5.2 0.00 0.00 0.00 93 1012.0
20260505150908 72 10 2.6 5.2 0.00 0.00 0.00 93 1012.0
20260505150808 72 13 2.6 5.2 0.00 0.00 0.00 93 1012.1
20260505150730 72 13 2.6 5.2 0.00 0.00 0.00 93 1012.1
20260505150608 72 12 1.7 5.2 0.00 0.00 0.00 92 1012.0
20260505150508 72 13 1.7 6.1 0.00 0.00 0.00 92 1012.1
20260505150408 72 14 1.7 6.1 0.00 0.00 0.00 92 1012.2
20260505150330 72 12 1.7 6.1 0.00 0.00 0.00 92 1012.0
20260505150208 72 12 2.6 6.1 0.00 0.00 0.00 92 1012.0
20260505150108 72 13 2.6 6.1 0.00 0.00 0.00 92 1012.0
20260505140608 71 9 1.7 3.5 0.00 0.00 0.00 90 1012.7
20260505140508 71 7 1.7 3.5 0.00 0.00 0.00 90 1012.7
20260505140408 71 4 2.6 3.5 0.00 0.00 0.00 90 1012.6
20260505140330 71 4 2.6 5.2 0.00 0.00 0.00 90 1012.9
20260505140208 71 5 1.7 5.2 0.00 0.00 0.00 91 1012.7
20260505140108 71 7 1.7 5.2 0.00 0.00 0.00 91 1012.8
20260505130308 68 16 1.7 5.2 0.00 0.00 0.00 95 1012.8
20260505130208 67 15 1.7 5.2 0.00 0.00 0.00 95 1012.9
20260505130108 67 15 0.9 5.2 0.00 0.00 0.00 95 1012.9
20260505125008 67 31 1.7 5.2 0.00 0.00 0.00 96 1012.8
20260505124908 67 31 1.7 5.2 0.00 0.00 0.00 96 1012.7
20260505124829 67 31 1.7 5.2 0.00 0.00 0.00 96 1012.6
20260505124708 67 29 1.7 5.2 0.00 0.00 0.00 96 1012.6
20260505124630 67 29 1.7 5.2 0.00 0.00 0.00 96 1012.6
20260505124508 67 27 2.6 5.2 0.00 0.00 0.00 96 1012.6
20260505124408 67 30 1.7 5.2 0.00 0.00 0.00 96 1012.6
20260505124308 67 28 2.6 3.5 0.00 0.00 0.00 96 1012.8
20260505124208 67 24 2.6 3.5 0.00 0.00 0.00 96 1012.8
20260505124108 67 23 1.7 5.2 0.00 0.00 0.00 96 1012.8
20260505124008 67 23 1.7 5.2 0.00 0.00 0.00 96 1012.7
20260505123929 67 25 1.7 5.2 0.00 0.00 0.00 96 1012.6
20260505123808 67 23 1.7 5.2 0.00 0.00 0.00 96 1012.9
20260505123708 67 23 2.6 5.2 0.00 0.00 0.00 96 1012.7
20260505123608 67 25 1.7 5.2 0.00 0.00 0.00 96 1012.8
20260505123508 66 25 2.6 5.2 0.00 0.00 0.00 96 1012.7
20260505123408 66 23 2.6 5.2 0.00 0.00 0.00 96 1012.7
20260505123330 66 25 1.7 5.2 0.00 0.00 0.00 96 1012.7
20260505123208 66 30 1.7 5.2 0.00 0.00 0.00 96 1012.5
20260505123130 66 33 3.5 5.2 0.00 0.00 0.00 96 1012.7
20260505123009 66 35 2.6 5.2 0.00 0.00 0.00 96 1012.7
20260505122908 66 34 1.7 5.2 0.00 0.00 0.00 96 1012.5
20260505122808 66 37 1.7 5.2 0.00 0.00 0.00 96 1012.7
20260505122708 66 39 1.7 5.2 0.00 0.00 0.00 96 1012.7
20260505122608 66 39 1.7 5.2 0.00 0.00 0.00 96 1012.7
20260505122508 66 39 1.7 5.2 0.00 0.00 0.00 96 1012.7
20260505122430 66 39 1.7 5.2 0.00 0.00 0.00 96 1012.7
20260505122308 66 36 3.5 5.2 0.00 0.00 0.00 96 1012.7
20260505122208 66 34 3.5 5.2 0.00 0.00 0.00 96 1012.6
20260505122108 66 31 1.7 3.5 0.00 0.00 0.00 96 1012.6
20260505122008 66 28 2.6 3.5 0.00 0.00 0.00 96 1012.7
20260505121929 66 28 1.7 3.5 0.00 0.00 0.00 96 1012.4
20260505121808 66 29 2.6 3.5 0.00 0.00 0.00 96 1012.5
20260505121729 66 28 1.7 3.5 0.00 0.00 0.00 96 1012.5
20260505121608 66 29 1.7 3.5 0.00 0.00 0.00 96 1012.3
20260505121529 66 28 1.7 3.5 0.00 0.00 0.00 96 1012.5
20260505121408 66 30 2.6 3.5 0.00 0.00 0.00 96 1012.5
20260505121330 66 30 0.9 3.5 0.00 0.00 0.00 96 1012.5
20260505121230 66 30 1.7 3.5 0.00 0.00 0.00 96 1012.3
20260505121108 66 30 1.7 5.2 0.00 0.00 0.00 96 1012.4
20260505121009 66 32 1.7 5.2 0.00 0.00 0.00 96 1012.4
20260505120908 66 31 2.6 5.2 0.00 0.00 0.00 96 1012.5
20260505120808 66 29 1.7 5.2 0.00 0.00 0.00 96 1012.5
20260505120708 66 29 2.6 5.2 0.00 0.00 0.00 96 1012.5
20260505120608 66 29 0.9 5.2 0.00 0.00 0.00 96 1012.7
20260505120531 66 30 1.7 5.2 0.00 0.00 0.00 96 1012.4
20260505120408 66 31 1.7 5.2 0.00 0.00 0.00 96 1012.5
20260505120308 65 32 1.7 5.2 0.00 0.00 0.00 96 1012.5
20260505120224 65 32 1.7 5.2 0.00 0.00 0.00 96 1012.4
20260505120129 65 32 3.5 5.2 0.00 0.00 0.00 96 1012.4
20260505120009 65 31 1.7 3.5 0.00 0.00 0.00 96 1012.3
20260505115908 65 30 1.7 3.5 0.00 0.00 0.00 96 1012.5
20260505115808 65 30 1.7 3.5 0.00 0.00 0.00 96 1012.3
20260505115729 65 30 1.7 3.5 0.00 0.00 0.00 96 1012.4
20260505115608 65 28 1.7 3.5 0.00 0.00 0.00 96 1012.4
20260505115508 65 28 1.7 3.5 0.00 0.00 0.00 96 1012.3
20260505115408 65 25 1.7 5.2 0.00 0.00 0.00 96 1012.4
20260505115308 65 24 1.7 5.2 0.00 0.00 0.00 96 1012.4
20260505115208 65 24 1.7 5.2 0.00 0.00 0.00 96 1012.3
20260505115108 65 24 1.7 5.2 0.00 0.00 0.00 96 1012.4
20260505115008 65 24 1.7 5.2 0.00 0.00 0.00 96 1012.3
20260505114908 65 24 1.7 5.2 0.00 0.00 0.00 96 1012.5
20260505114808 65 25 1.7 5.2 0.00 0.00 0.00 96 1012.3
20260505114708 65 27 1.7 5.2 0.00 0.00 0.00 96 1012.2
20260505114608 65 28 1.7 5.2 0.00 0.00 0.00 96 1011.9
20260505114508 65 28 1.7 5.2 0.00 0.00 0.00 96 1012.1
20260505114429 65 28 2.6 5.2 0.00 0.00 0.00 96 1012.1
20260505114308 65 29 1.7 3.5 0.00 0.00 0.00 96 1012.1
20260505114208 65 31 1.7 3.5 0.00 0.00 0.00 96 1012.1
20260505114108 65 31 1.7 3.5 0.00 0.00 0.00 96 1012.1
20260505114008 65 33 1.7 3.5 0.00 0.00 0.00 96 1012.1
20260505113908 65 36 1.7 3.5 0.00 0.00 0.00 96 1012.0
20260505113829 65 37 1.7 3.5 0.00 0.00 0.00 96 1012.0
20260505113730 65 38 1.7 3.5 0.00 0.00 0.00 96 1011.9
20260505113608 65 35 1.7 3.5 0.00 0.00 0.00 96 1012.1
20260505113508 65 33 1.7 3.5 0.00 0.00 0.00 96 1012.0
20260505113408 65 33 1.7 3.5 0.00 0.00 0.00 96 1012.0
20260505113308 65 35 1.7 3.5 0.00 0.00 0.00 96 1012.0
20260505113208 65 34 1.7 3.5 0.00 0.00 0.00 96 1012.0
20260505113108 65 35 1.7 3.5 0.00 0.00 0.00 96 1011.9
20260505113009 65 35 1.7 3.5 0.00 0.00 0.00 96 1012.0
20260505112908 65 35 1.7 3.5 0.00 0.00 0.00 96 1011.9
20260505112808 65 33 1.7 3.5 0.00 0.00 0.00 96 1012.0
20260505112708 65 34 1.7 3.5 0.00 0.00 0.00 96 1011.9
20260505112630 65 37 1.7 3.5 0.00 0.00 0.00 96 1011.9
20260505112508 65 43 1.7 3.5 0.00 0.00 0.00 96 1011.9
20260505112408 65 47 1.7 3.5 0.00 0.00 0.00 96 1011.9
20260505112308 65 48 0.9 3.5 0.00 0.00 0.00 96 1011.8
20260505112208 65 50 1.7 3.5 0.00 0.00 0.00 96 1011.9
20260505112129 65 50 1.7 3.5 0.00 0.00 0.00 96 1011.7
20260505112008 65 52 0.9 3.5 0.00 0.00 0.00 96 1011.7
20260505111908 65 53 1.7 3.5 0.00 0.00 0.00 96 1011.9
20260505111830 65 54 1.7 3.5 0.00 0.00 0.00 96 1011.9
20260505111708 65 53 1.7 3.5 0.00 0.00 0.00 96 1011.6
20260505111608 65 50 1.7 3.5 0.00 0.00 0.00 96 1011.6
20260505111508 65 45 0.0 1.7 0.00 0.00 0.00 96 1011.6
20260505111408 65 45 0.0 1.7 0.00 0.00 0.00 96 1011.6
20260505111308 65 45 0.0 1.7 0.00 0.00 0.00 96 1011.6
20260505111208 65 45 1.7 1.7 0.00 0.00 0.00 96 1011.7
20260505111108 65 45 1.7 1.7 0.00 0.00 0.00 96 1011.8
20260505111008 65 45 0.9 1.7 0.00 0.00 0.00 96 1011.8
20260505110929 65 45 0.9 1.7 0.00 0.00 0.00 96 1011.8
20260505110808 65 45 0.0 1.7 0.00 0.00 0.00 96 1011.8
20260505110708 64 0 0.0 0.0 0.00 0.00 0.00 96 1011.9
20260505110608 64 0 0.0 0.0 0.00 0.00 0.00 96 1011.9
20260505110508 64 22 0.0 1.7 0.00 0.00 0.00 96 1012.0
20260505110429 64 22 0.0 1.7 0.00 0.00 0.00 96 1011.9
20260505110308 64 22 0.0 1.7 0.00 0.00 0.00 96 1012.1
20260505110229 64 22 0.0 1.7 0.00 0.00 0.00 96 1012.1
20260505110130 64 22 0.0 1.7 0.00 0.00 0.00 96 1012.0
20260505102208 64 0 0.0 0.0 0.00 0.00 0.00 95 1011.6
20260505102108 64 0 0.0 0.0 0.00 0.00 0.00 95 1011.5
20260505102008 64 0 0.0 0.0 0.00 0.00 0.00 95 1011.5
20260505101908 64 0 0.0 0.0 0.00 0.00 0.00 95 1011.5
20260505101829 64 0 0.0 0.0 0.00 0.00 0.00 95 1011.5
20260505101708 64 0 0.0 0.0 0.00 0.00 0.00 95 1011.5
20260505101608 64 0 0.0 0.0 0.00 0.00 0.00 95 1011.6
20260505101508 64 0 0.0 0.0 0.00 0.00 0.00 95 1011.6
20260505101408 64 0 0.0 0.0 0.00 0.00 0.00 95 1011.6
20260505101308 64 0 0.0 0.0 0.00 0.00 0.00 95 1011.5
20260505101208 64 0 0.0 0.0 0.00 0.00 0.00 95 1011.4
20260505101108 64 0 0.0 0.0 0.00 0.00 0.00 95 1011.4
20260505101029 64 0 0.0 0.0 0.00 0.00 0.00 95 1011.4
20260505100908 64 0 0.0 0.0 0.00 0.00 0.00 95 1011.5
20260505100808 64 0 0.0 0.0 0.00 0.00 0.00 95 1011.5
20260505100708 64 0 0.0 0.0 0.00 0.00 0.00 95 1011.5
20260505100608 64 0 0.0 0.0 0.00 0.00 0.00 95 1011.4
20260505100508 64 0 0.0 0.0 0.00 0.00 0.00 95 1011.4
20260505100408 64 0 0.0 0.0 0.00 0.00 0.00 95 1011.4
20260505100330 64 0 0.0 0.0 0.00 0.00 0.00 95 1011.4
20260505100208 64 0 0.0 0.0 0.00 0.00 0.00 95 1011.5
20260505100108 64 0 0.0 0.0 0.00 0.00 0.00 95 1011.6
20260505100009 64 0 0.0 0.0 0.00 0.00 0.00 95 1011.3
20260505095908 64 0 0.0 0.0 0.00 0.00 0.00 95 1011.5
20260505095829 64 0 0.0 0.0 0.00 0.00 0.00 95 1011.5
20260505095729 64 0 0.0 0.0 0.00 0.00 0.00 95 1011.4
20260505095608 64 0 0.0 0.0 0.00 0.00 0.00 95 1011.3
20260505095508 64 0 0.0 0.0 0.00 0.00 0.00 95 1011.4
20260505095429 64 0 0.0 0.0 0.00 0.00 0.00 95 1011.4
20260505095308 64 360 0.0 1.7 0.00 0.00 0.00 95 1011.2
20260505095229 64 360 0.0 1.7 0.00 0.00 0.00 95 1011.4
20260505095129 64 360 0.0 1.7 0.00 0.00 0.00 95 1011.3
20260505095008 64 360 0.0 1.7 0.00 0.00 0.00 95 1011.2
20260505094908 64 360 0.0 1.7 0.00 0.00 0.00 95 1011.2
20260505094808 64 1 0.0 1.7 0.00 0.00 0.00 95 1011.3
20260505094729 64 4 0.0 1.7 0.00 0.00 0.00 95 1011.2
20260505094608 64 7 0.0 1.7 0.00 0.00 0.00 95 1011.2
20260505094529 64 8 0.0 1.7 0.00 0.00 0.00 95 1011.0
20260505094408 64 10 0.0 1.7 0.00 0.00 0.00 95 1011.1
20260505094308 64 9 0.9 1.7 0.00 0.00 0.00 95 1011.1
20260505094229 64 9 0.9 1.7 0.00 0.00 0.00 95 1011.1
20260505094108 64 9 1.7 1.7 0.00 0.00 0.00 95 1011.2
20260505094008 64 8 1.7 1.7 0.00 0.00 0.00 95 1011.2
20260505093908 63 9 1.7 1.7 0.00 0.00 0.00 95 1011.1
20260505093809 63 9 1.7 1.7 0.00 0.00 0.00 95 1011.3
20260505093708 63 8 1.7 1.7 0.00 0.00 0.00 95 1010.9
20260505093608 63 5 0.9 1.7 0.00 0.00 0.00 94 1011.1
20260505093508 63 1 0.9 1.7 0.00 0.00 0.00 94 1011.1
20260505093408 63 356 0.9 1.7 0.00 0.00 0.00 94 1011.1
20260505093308 64 354 0.9 1.7 0.00 0.00 0.00 94 1011.2
20260505093208 64 351 1.7 1.7 0.00 0.00 0.00 94 1011.0
20260505093108 64 337 0.9 1.7 0.00 0.00 0.00 94 1011.2
20260505093030 64 337 0.9 1.7 0.00 0.00 0.00 94 1011.2
20260505092908 64 0 0.0 0.0 0.00 0.00 0.00 94 1011.2
20260505092808 64 0 0.0 0.0 0.00 0.00 0.00 94 1011.1
20260505092708 64 0 0.0 0.0 0.00 0.00 0.00 94 1011.1
20260505092608 64 0 0.0 0.0 0.00 0.00 0.00 94 1010.9
20260505092529 64 0 0.0 0.0 0.00 0.00 0.00 94 1010.8
20260505092408 64 0 0.0 0.0 0.00 0.00 0.00 94 1011.0
20260505092308 64 0 0.0 0.0 0.00 0.00 0.00 94 1011.1
20260505092208 64 0 0.0 0.0 0.00 0.00 0.00 94 1010.9
20260505092108 64 0 0.0 0.0 0.00 0.00 0.00 94 1011.0
20260505092008 64 337 0.0 1.7 0.00 0.00 0.00 94 1011.1
20260505091908 64 337 0.0 1.7 0.00 0.00 0.00 94 1011.0
20260505091808 64 337 0.0 1.7 0.00 0.00 0.00 94 1011.0
20260505091708 64 337 0.0 1.7 0.00 0.00 0.00 94 1011.0
20260505091629 64 337 0.0 1.7 0.00 0.00 0.00 94 1010.9
20260505091508 64 337 0.0 1.7 0.00 0.00 0.00 94 1010.9
20260505091408 64 337 0.0 1.7 0.00 0.00 0.00 94 1010.9
20260505091308 64 337 0.0 1.7 0.00 0.00 0.00 94 1010.8
20260505091230 64 337 0.0 1.7 0.00 0.00 0.00 94 1010.8
20260505091108 64 337 0.9 1.7 0.00 0.00 0.00 94 1011.0
20260505091008 64 337 0.0 1.7 0.00 0.00 0.00 94 1010.8
20260505090908 64 337 0.0 1.7 0.00 0.00 0.00 94 1011.0
20260505090808 64 337 0.0 1.7 0.00 0.00 0.00 94 1010.9
20260505090708 64 337 0.9 1.7 0.00 0.00 0.00 94 1010.8
20260505090608 64 337 0.9 1.7 0.00 0.00 0.00 94 1010.8
20260505090508 64 337 0.9 1.7 0.00 0.00 0.00 94 1010.9
20260505090408 64 337 0.9 1.7 0.00 0.00 0.00 94 1010.8
20260505090308 64 337 0.0 1.7 0.00 0.00 0.00 94 1010.8
20260505090208 64 337 0.0 1.7 0.00 0.00 0.00 94 1010.9
20260505090108 64 337 0.0 1.7 0.00 0.00 0.00 94 1010.9
20260505090009 64 341 0.0 1.7 0.00 0.00 0.00 94 1010.9
20260505085908 64 346 1.7 1.7 0.00 0.00 0.00 94 1010.9
20260505085830 64 349 1.7 1.7 0.00 0.00 0.00 94 1010.9
20260505085708 64 357 0.9 1.7 0.00 0.00 0.00 94 1010.9
20260505085608 64 5 0.0 1.7 0.00 0.00 0.00 94 1010.8
20260505085508 64 10 0.0 3.5 0.00 0.00 0.00 94 1011.1
20260505085408 64 12 0.0 3.5 0.00 0.00 0.00 94 1010.7
20260505085308 64 13 0.0 3.5 0.00 0.00 0.00 94 1010.7
20260505085208 64 14 0.0 3.5 0.00 0.00 0.00 94 1010.8
20260505085108 64 16 0.9 3.5 0.00 0.00 0.00 94 1010.7
20260505085008 64 15 0.9 3.5 0.00 0.00 0.00 94 1010.7
20260505084908 64 16 0.9 3.5 0.00 0.00 0.00 94 1010.8
20260505084808 64 17 0.9 3.5 0.00 0.00 0.00 94 1010.7
20260505084708 64 16 1.7 3.5 0.00 0.00 0.00 94 1010.5
20260505084608 64 14 1.7 3.5 0.00 0.00 0.00 94 1010.6
20260505084508 64 12 1.7 3.5 0.00 0.00 0.00 94 1010.5
20260505084408 64 12 1.7 3.5 0.00 0.00 0.00 94 1010.4
20260505084308 64 12 1.7 3.5 0.00 0.00 0.00 94 1010.4
20260505084208 64 14 1.7 3.5 0.00 0.00 0.00 94 1010.3
20260505084108 64 14 1.7 3.5 0.00 0.00 0.00 94 1010.6
20260505084008 64 15 1.7 3.5 0.00 0.00 0.00 94 1010.6
20260505083908 64 15 1.7 3.5 0.00 0.00 0.00 94 1010.7
20260505083808 64 13 1.7 3.5 0.00 0.00 0.00 94 1010.5
20260505083708 64 15 2.6 3.5 0.00 0.00 0.00 94 1010.7
20260505083608 64 16 2.6 3.5 0.00 0.00 0.00 94 1010.5
20260505083508 64 18 1.7 3.5 0.00 0.00 0.00 94 1010.5
20260505083408 64 18 2.6 3.5 0.00 0.00 0.00 94 1010.5
20260505083308 64 18 1.7 3.5 0.00 0.00 0.00 94 1010.4
20260505083208 64 16 1.7 3.5 0.00 0.00 0.00 94 1010.4
20260505083108 64 14 2.6 3.5 0.00 0.00 0.00 94 1010.5
20260505083009 64 14 2.6 3.5 0.00 0.00 0.00 94 1010.6
20260505082908 64 14 1.7 3.5 0.00 0.00 0.00 94 1010.6
20260505082808 64 18 1.7 3.5 0.00 0.00 0.00 94 1010.7
20260505082708 64 18 1.7 3.5 0.00 0.00 0.00 93 1010.6
20260505082629 64 20 1.7 3.5 0.00 0.00 0.00 93 1010.6
20260505082508 64 21 1.7 3.5 0.00 0.00 0.00 93 1010.4
20260505082408 64 21 1.7 3.5 0.00 0.00 0.00 93 1010.6
20260505082308 64 21 1.7 3.5 0.00 0.00 0.00 93 1010.4
20260505082208 64 20 1.7 3.5 0.00 0.00 0.00 93 1010.5
20260505082108 64 19 1.7 3.5 0.00 0.00 0.00 93 1010.6
20260505082008 64 17 1.7 3.5 0.00 0.00 0.00 93 1010.5
20260505081908 64 16 1.7 3.5 0.00 0.00 0.00 93 1010.5
20260505081808 64 14 1.7 3.5 0.00 0.00 0.00 93 1010.5
20260505081708 64 14 1.7 3.5 0.00 0.00 0.00 93 1010.5
20260505081608 64 14 1.7 3.5 0.00 0.00 0.00 93 1010.5
20260505081529 64 12 1.7 3.5 0.00 0.00 0.00 93 1010.7
20260505081408 64 11 1.7 3.5 0.00 0.00 0.00 93 1010.6
20260505081308 64 9 1.7 3.5 0.00 0.00 0.00 93 1010.7
20260505081208 64 8 1.7 3.5 0.00 0.00 0.00 93 1010.8
20260505081129 64 7 1.7 3.5 0.00 0.00 0.00 93 1010.7
20260505081008 64 4 1.7 3.5 0.00 0.00 0.00 93 1010.8
20260505080908 64 4 1.7 3.5 0.00 0.00 0.00 93 1010.8
20260505080808 64 5 0.9 3.5 0.00 0.00 0.00 93 1010.7
20260505080730 64 8 1.7 3.5 0.00 0.00 0.00 93 1010.6
20260505080629 64 8 1.7 3.5 0.00 0.00 0.00 93 1010.7
20260505080508 64 8 1.7 1.7 0.00 0.00 0.00 93 1010.8
20260505080408 64 8 0.9 1.7 0.00 0.00 0.00 93 1010.8
20260505080329 64 8 0.9 1.7 0.00 0.00 0.00 93 1010.8
20260505080208 64 10 1.7 1.7 0.00 0.00 0.00 93 1010.9
20260505080108 64 17 0.9 1.7 0.00 0.00 0.00 93 1010.7
20260505080030 64 27 1.7 1.7 0.00 0.00 0.00 93 1010.6
20260505075908 64 41 1.7 1.7 0.00 0.00 0.00 93 1010.5
20260505075808 64 45 1.7 1.7 0.00 0.00 0.00 93 1010.6
20260505075708 64 45 0.9 1.7 0.00 0.00 0.00 93 1010.5
20260505075608 64 45 0.0 1.7 0.00 0.00 0.00 93 1010.6
20260505075508 64 45 0.0 1.7 0.00 0.00 0.00 93 1010.5
20260505075408 64 45 0.0 1.7 0.00 0.00 0.00 93 1010.7
20260505075308 64 45 0.0 1.7 0.00 0.00 0.00 93 1010.7
20260505075208 64 45 0.0 1.7 0.00 0.00 0.00 92 1010.6
20260505075108 64 45 0.9 1.7 0.00 0.00 0.00 92 1010.6
20260505075008 64 45 0.0 1.7 0.00 0.00 0.00 92 1010.6
20260505074908 64 42 0.0 1.7 0.00 0.00 0.00 92 1010.6
20260505074808 64 41 0.0 1.7 0.00 0.00 0.00 92 1010.4
20260505074708 64 40 0.0 1.7 0.00 0.00 0.00 92 1010.7
20260505074608 64 38 0.0 1.7 0.00 0.00 0.00 92 1010.6
20260505074429 64 35 0.0 1.7 0.00 0.00 0.00 92 1010.7
20260505074308 64 35 1.7 1.7 0.00 0.00 0.00 92 1010.6
20260505074208 64 35 1.7 1.7 0.00 0.00 0.00 92 1010.7
20260505074108 64 36 0.9 3.5 0.00 0.00 0.00 92 1010.7
20260505074008 64 37 1.7 3.5 0.00 0.00 0.00 92 1010.6
20260505073908 64 37 1.7 3.5 0.00 0.00 0.00 92 1010.5
20260505073808 64 35 1.7 3.5 0.00 0.00 0.00 92 1010.6
20260505073708 64 34 0.9 3.5 0.00 0.00 0.00 92 1010.6
20260505073608 64 34 1.7 3.5 0.00 0.00 0.00 92 1010.5
20260505073508 64 34 1.7 3.5 0.00 0.00 0.00 92 1010.6
20260505073408 64 33 1.7 3.5 0.00 0.00 0.00 92 1010.7
20260505073308 64 32 1.7 3.5 0.00 0.00 0.00 92 1010.7
20260505073208 64 30 1.7 3.5 0.00 0.00 0.00 92 1010.7
20260505073108 64 28 1.7 3.5 0.00 0.00 0.00 92 1010.6
20260505073009 64 25 1.7 3.5 0.00 0.00 0.00 92 1010.5
20260505072908 64 24 1.7 3.5 0.00 0.00 0.00 92 1010.6
20260505072808 64 24 1.7 3.5 0.00 0.00 0.00 92 1010.8
20260505072708 64 24 2.6 3.5 0.00 0.00 0.00 92 1010.7
20260505072608 64 22 1.7 3.5 0.00 0.00 0.00 92 1010.6
20260505072508 64 22 1.7 3.5 0.00 0.00 0.00 92 1010.7
20260505072408 64 21 1.7 3.5 0.00 0.00 0.00 92 1010.5
20260505072329 64 20 1.7 3.5 0.00 0.00 0.00 92 1010.9
20260505072208 64 17 1.7 3.5 0.00 0.00 0.00 92 1010.8
20260505072108 64 16 1.7 3.5 0.00 0.00 0.00 92 1010.9
20260505072008 64 13 1.7 3.5 0.00 0.00 0.00 92 1010.8
20260505071929 64 11 1.7 3.5 0.00 0.00 0.00 92 1010.8
20260505071808 64 7 1.7 3.5 0.00 0.00 0.00 92 1010.9
20260505071708 64 3 1.7 3.5 0.00 0.00 0.00 92 1010.7
20260505071608 64 357 1.7 3.5 0.00 0.00 0.00 92 1010.7
20260505071508 64 352 1.7 3.5 0.00 0.00 0.00 92 1010.9
20260505071430 64 350 1.7 3.5 0.00 0.00 0.00 92 1011.0
20260505071308 64 349 1.7 3.5 0.00 0.00 0.00 92 1010.9
20260505071229 64 347 1.7 3.5 0.00 0.00 0.00 92 1010.8
20260505071108 64 346 1.7 3.5 0.00 0.00 0.00 91 1010.9
20260505071008 64 346 1.7 3.5 0.00 0.00 0.00 91 1010.9
20260505070908 64 345 1.7 3.5 0.00 0.00 0.00 91 1010.8
20260505070808 64 343 1.7 3.5 0.00 0.00 0.00 91 1010.8
20260505070708 64 343 1.7 3.5 0.00 0.00 0.00 91 1011.0
20260505070629 64 343 1.7 3.5 0.00 0.00 0.00 91 1011.0
20260505070508 64 347 1.7 3.5 0.00 0.00 0.00 91 1010.9
20260505070408 64 348 1.7 5.2 0.00 0.00 0.00 91 1010.7
20260505070308 64 347 1.7 5.2 0.00 0.00 0.00 91 1010.9
20260505070208 64 350 1.7 5.2 0.00 0.00 0.00 91 1010.9
20260505070108 64 351 2.6 5.2 0.00 0.00 0.00 91 1010.9
20260505070030 64 350 2.6 5.2 0.00 0.00 0.00 91 1011.0
20260505065908 64 350 1.7 5.2 0.00 0.00 0.00 91 1010.8
20260505065829 64 350 1.7 5.2 0.00 0.00 0.00 91 1010.8
20260505065729 64 352 1.7 5.2 0.00 0.00 0.00 91 1010.9
20260505065608 64 355 1.7 5.2 0.00 0.00 0.00 91 1010.8
20260505065508 64 355 2.6 5.2 0.00 0.00 0.00 91 1010.9
20260505065408 64 355 2.6 5.2 0.00 0.00 0.00 91 1010.9
20260505065308 64 355 2.6 5.2 0.00 0.00 0.00 91 1010.8
20260505065208 64 353 1.7 5.2 0.00 0.00 0.00 91 1010.8
20260505065129 64 352 1.7 5.2 0.00 0.00 0.00 91 1010.8
20260505065008 64 356 1.7 5.2 0.00 0.00 0.00 91 1010.9
20260505064908 64 354 1.7 5.2 0.00 0.00 0.00 91 1011.0
20260505064829 64 354 1.7 5.2 0.00 0.00 0.00 91 1010.8
20260505064708 64 354 1.7 5.2 0.00 0.00 0.00 91 1010.9
20260505064608 64 354 2.6 6.1 0.00 0.00 0.00 91 1010.9
20260505064529 64 352 2.6 6.1 0.00 0.00 0.00 91 1010.9
20260505064408 64 353 2.6 6.1 0.00 0.00 0.00 91 1010.9
20260505064308 64 354 1.7 6.1 0.00 0.00 0.00 90 1010.9
20260505064208 64 356 2.6 6.1 0.00 0.00 0.00 90 1010.9
20260505064129 64 355 2.6 6.1 0.00 0.00 0.00 90 1010.8
20260505064008 64 352 2.6 6.1 0.00 0.00 0.00 90 1010.9
20260505063908 64 352 3.5 6.1 0.00 0.00 0.00 90 1010.9
20260505063808 64 353 3.5 6.1 0.00 0.00 0.00 90 1010.7
20260505063708 64 353 2.6 6.1 0.00 0.00 0.00 90 1010.7
20260505063608 64 353 3.5 6.1 0.00 0.00 0.00 90 1010.8
20260505063508 64 350 2.6 6.1 0.00 0.00 0.00 90 1010.7
20260505063408 64 349 3.5 6.1 0.00 0.00 0.00 90 1010.8
20260505063308 64 348 3.5 6.1 0.00 0.00 0.00 90 1010.6
20260505063208 64 346 1.7 5.2 0.00 0.00 0.00 90 1010.9
20260505063108 64 345 1.7 5.2 0.00 0.00 0.00 90 1010.5
20260505063030 64 345 1.7 5.2 0.00 0.00 0.00 90 1010.5
20260505062929 64 345 2.6 5.2 0.00 0.00 0.00 90 1010.7
20260505062808 64 342 3.5 5.2 0.00 0.00 0.00 90 1010.7
20260505062708 64 341 3.5 5.2 0.00 0.00 0.00 90 1010.8
20260505062608 64 339 3.5 5.2 0.00 0.00 0.00 90 1010.8
20260505062508 64 342 2.6 5.2 0.00 0.00 0.00 90 1010.7
20260505062408 64 344 2.6 5.2 0.00 0.00 0.00 90 1010.6
20260505062308 64 344 2.6 5.2 0.00 0.00 0.00 90 1010.7
20260505062208 64 342 2.6 5.2 0.00 0.00 0.00 90 1010.7
20260505062108 64 343 2.6 5.2 0.00 0.00 0.00 90 1010.7
20260505062008 64 343 2.6 5.2 0.00 0.00 0.00 90 1010.9
20260505061929 64 345 2.6 5.2 0.00 0.00 0.00 90 1010.8
20260505061808 64 346 2.6 5.2 0.00 0.00 0.00 89 1010.6
20260505061708 64 346 2.6 5.2 0.00 0.00 0.00 89 1010.7
20260505061608 64 346 1.7 5.2 0.00 0.00 0.00 89 1010.8
20260505061508 64 341 1.7 5.2 0.00 0.00 0.00 89 1010.8
20260505061408 64 339 1.7 5.2 0.00 0.00 0.00 89 1010.8
20260505061329 64 341 1.7 5.2 0.00 0.00 0.00 89 1010.7
20260505061208 64 344 1.7 5.2 0.00 0.00 0.00 89 1011.0
20260505061108 64 347 2.6 5.2 0.00 0.00 0.00 89 1010.8
20260505061029 64 348 2.6 6.1 0.00 0.00 0.00 89 1010.8
20260505060908 64 345 1.7 6.1 0.00 0.00 0.00 89 1010.7
20260505060808 64 347 2.6 6.1 0.00 0.00 0.00 89 1010.9
20260505060708 64 348 1.7 6.1 0.00 0.00 0.00 89 1010.9
20260505060608 64 348 1.7 6.1 0.00 0.00 0.00 89 1010.8
20260505060508 64 348 2.6 7.0 0.00 0.00 0.00 89 1010.9
20260505060408 64 348 3.5 7.0 0.00 0.00 0.00 89 1010.7
20260505060308 64 344 1.7 7.0 0.00 0.00 0.00 89 1011.0
20260505060208 64 343 3.5 7.0 0.00 0.00 0.00 89 1010.9
20260505060108 64 343 3.5 7.0 0.00 0.00 0.00 89 1010.9
20260505060009 64 342 3.5 7.0 0.00 0.00 0.00 89 1011.0
20260505055929 64 343 3.5 7.0 0.00 0.00 0.00 89 1010.9
20260505055808 64 341 2.6 7.0 0.00 0.00 0.00 89 1010.8
20260505055708 64 342 3.5 7.0 0.00 0.00 0.00 89 1010.9
20260505055608 64 343 2.6 7.0 0.00 0.00 0.00 89 1010.9
20260505055508 64 344 2.6 7.0 0.00 0.00 0.00 88 1010.9
20260505055408 64 344 3.5 7.0 0.00 0.00 0.00 88 1011.1
20260505055329 64 346 3.5 6.1 0.00 0.00 0.00 88 1011.0
20260505055208 63 352 3.5 6.1 0.00 0.00 0.00 88 1011.1
20260505055108 63 352 1.7 5.2 0.00 0.00 0.00 88 1010.9
20260505055008 63 353 2.6 5.2 0.00 0.00 0.00 88 1010.9
20260505054908 63 352 1.7 5.2 0.00 0.00 0.00 88 1011.0
20260505054808 64 354 2.6 5.2 0.00 0.00 0.00 88 1011.0
20260505054708 64 354 3.5 5.2 0.00 0.00 0.00 88 1011.1
20260505054629 64 353 3.5 5.2 0.00 0.00 0.00 88 1011.1
20260505054508 63 356 2.6 3.5 0.00 0.00 0.00 88 1010.8
20260505054408 63 357 2.6 3.5 0.00 0.00 0.00 88 1010.8
20260505054308 63 354 2.6 3.5 0.00 0.00 0.00 88 1010.8
20260505054208 63 354 2.6 5.2 0.00 0.00 0.00 88 1010.8
20260505054108 63 354 1.7 5.2 0.00 0.00 0.00 88 1010.8
20260505054008 63 354 1.7 5.2 0.00 0.00 0.00 88 1010.7
20260505053908 63 356 1.7 5.2 0.00 0.00 0.00 87 1010.8
20260505053808 63 356 1.7 5.2 0.00 0.00 0.00 87 1010.8
20260505053729 63 358 2.6 5.2 0.00 0.00 0.00 87 1010.8
20260505053608 64 2 1.7 5.2 0.00 0.00 0.00 87 1010.8
20260505053529 64 3 2.6 5.2 0.00 0.00 0.00 87 1010.8
20260505053408 64 6 2.6 5.2 0.00 0.00 0.00 87 1010.8
20260505053308 64 11 1.7 5.2 0.00 0.00 0.00 87 1010.8
20260505053208 64 16 3.5 5.2 0.00 0.00 0.00 87 1010.9
20260505053108 63 19 1.7 5.2 0.00 0.00 0.00 87 1010.9
20260505053008 63 21 1.7 5.2 0.00 0.00 0.00 87 1011.0
20260505052908 63 23 1.7 5.2 0.00 0.00 0.00 87 1010.9
20260505052808 63 24 1.7 5.2 0.00 0.00 0.00 87 1010.8
20260505052708 63 26 1.7 5.2 0.00 0.00 0.00 87 1010.8
20260505052608 63 26 2.6 5.2 0.00 0.00 0.00 87 1010.8
20260505052508 63 26 1.7 3.5 0.00 0.00 0.00 87 1010.8
20260505052429 63 26 2.6 3.5 0.00 0.00 0.00 86 1010.7
20260505052308 63 24 2.6 3.5 0.00 0.00 0.00 86 1010.8
20260505052229 63 24 2.6 3.5 0.00 0.00 0.00 86 1010.8
20260505052108 63 22 1.7 3.5 0.00 0.00 0.00 86 1011.0
20260505052008 63 22 1.7 3.5 0.00 0.00 0.00 86 1011.0
20260505051908 63 23 1.7 3.5 0.00 0.00 0.00 86 1010.9
20260505051808 63 23 1.7 3.5 0.00 0.00 0.00 86 1010.7
20260505051708 63 22 1.7 3.5 0.00 0.00 0.00 86 1011.1
20260505051629 63 21 1.7 3.5 0.00 0.00 0.00 86 1011.2
20260505051529 63 19 1.7 3.5 0.00 0.00 0.00 86 1011.0
20260505051429 63 18 1.7 3.5 0.00 0.00 0.00 85 1011.0
20260505051329 63 17 1.7 5.2 0.00 0.00 0.00 85 1011.0
20260505051230 63 16 1.7 5.2 0.00 0.00 0.00 85 1011.0
20260505051108 63 15 1.7 5.2 0.00 0.00 0.00 85 1011.1
20260505051008 63 15 2.6 5.2 0.00 0.00 0.00 85 1011.0
20260505050908 63 15 1.7 5.2 0.00 0.00 0.00 85 1011.0
20260505050808 63 14 2.6 5.2 0.00 0.00 0.00 85 1010.9
20260505050708 63 13 1.7 5.2 0.00 0.00 0.00 85 1010.8
20260505050608 63 14 2.6 5.2 0.00 0.00 0.00 85 1011.1
20260505050508 63 14 1.7 5.2 0.00 0.00 0.00 85 1011.0
20260505050408 63 14 3.5 5.2 0.00 0.00 0.00 85 1011.1
20260505050308 63 13 1.7 5.2 0.00 0.00 0.00 85 1011.1
20260505050208 63 15 1.7 5.2 0.00 0.00 0.00 85 1011.0
20260505050108 63 14 2.6 5.2 0.00 0.00 0.00 84 1011.1
20260505041708 63 7 2.6 6.1 0.00 0.00 0.00 81 1011.2
20260505041608 63 8 1.7 6.1 0.00 0.00 0.00 81 1011.4
20260505041508 63 9 1.7 6.1 0.00 0.00 0.00 80 1011.4
20260505041408 63 9 2.6 6.1 0.00 0.00 0.00 80 1011.3
20260505041308 63 11 2.6 6.1 0.00 0.00 0.00 80 1011.4
20260505041208 63 11 2.6 6.1 0.00 0.00 0.00 80 1011.4
20260505041108 63 7 2.6 5.2 0.00 0.00 0.00 80 1011.3
20260505041008 63 9 2.6 5.2 0.00 0.00 0.00 80 1011.3
20260505040908 63 8 3.5 5.2 0.00 0.00 0.00 80 1011.2
20260505040808 64 5 1.7 3.5 0.00 0.00 0.00 80 1011.3
20260505040708 64 8 2.6 3.5 0.00 0.00 0.00 80 1011.4
20260505040608 64 11 2.6 5.2 0.00 0.00 0.00 80 1011.3
20260505040508 64 11 2.6 5.2 0.00 0.00 0.00 80 1011.3
20260505040408 64 11 2.6 6.1 0.00 0.00 0.00 80 1011.3
20260505040308 64 10 2.6 6.1 0.00 0.00 0.00 79 1011.4
20260505040208 64 11 2.6 6.1 0.00 0.00 0.00 79 1011.3
20260505040108 64 10 1.7 6.1 0.00 0.00 0.00 79 1011.2
20260505040009 64 10 1.7 7.0 0.00 0.00 0.00 79 1011.4
20260505035908 64 9 1.7 7.0 0.00 0.00 0.00 79 1011.3
20260505035808 64 10 2.6 7.0 0.00 0.00 0.00 78 1011.2
20260505035708 64 11 2.6 7.0 0.00 0.00 0.00 78 1011.2
20260505035629 64 11 3.5 7.0 0.00 0.00 0.00 78 1011.1
20260505035508 64 12 2.6 7.0 0.00 0.00 0.00 78 1011.2
20260505035429 64 13 2.6 7.0 0.00 0.00 0.00 78 1011.2
20260505035308 64 16 2.6 7.8 0.00 0.00 0.00 78 1011.2
20260505035208 64 18 2.6 7.8 0.00 0.00 0.00 78 1011.2
20260505035108 64 17 3.5 7.8 0.00 0.00 0.00 78 1011.4
20260505035008 64 20 3.5 7.8 0.00 0.00 0.00 78 1011.1
20260505034929 64 21 3.5 7.8 0.00 0.00 0.00 78 1011.1
20260505034808 64 23 3.5 7.8 0.00 0.00 0.00 78 1011.1
20260505034708 64 23 2.6 7.8 0.00 0.00 0.00 78 1011.0
20260505034608 64 23 3.5 7.8 0.00 0.00 0.00 78 1011.1
20260505034508 64 20 4.3 7.8 0.00 0.00 0.00 78 1011.0
20260505034408 64 18 3.5 7.8 0.00 0.00 0.00 78 1011.0
20260505034308 64 16 3.5 7.8 0.00 0.00 0.00 78 1010.9
20260505034229 64 14 3.5 7.8 0.00 0.00 0.00 78 1010.9
20260505034108 64 16 3.5 7.8 0.00 0.00 0.00 78 1010.9
20260505034008 64 16 4.3 7.8 0.00 0.00 0.00 78 1011.1
20260505033908 64 14 3.5 7.8 0.00 0.00 0.00 78 1011.1
20260505033808 64 14 2.6 7.8 0.00 0.00 0.00 78 1011.0
20260505033708 64 14 4.3 7.8 0.00 0.00 0.00 78 1011.0
20260505033608 64 13 4.3 7.0 0.00 0.00 0.00 78 1011.0
20260505033508 64 14 3.5 7.8 0.00 0.00 0.00 77 1011.0
20260505033408 64 13 3.5 7.8 0.00 0.00 0.00 77 1011.0
20260505033308 64 17 3.5 7.8 0.00 0.00 0.00 77 1011.0
20260505033208 64 17 2.6 7.8 0.00 0.00 0.00 77 1011.2
20260505033108 64 16 3.5 7.8 0.00 0.00 0.00 77 1011.1
20260505033008 64 17 3.5 7.8 0.00 0.00 0.00 77 1011.1
20260505032908 64 18 3.5 7.8 0.00 0.00 0.00 77 1011.2
20260505032808 64 18 3.5 7.8 0.00 0.00 0.00 77 1011.1
20260505032708 64 18 2.6 7.8 0.00 0.00 0.00 77 1011.0
20260505032608 64 20 3.5 7.8 0.00 0.00 0.00 78 1011.0
20260505032508 64 18 3.5 7.8 0.00 0.00 0.00 78 1011.1
20260505032408 64 18 3.5 7.8 0.00 0.00 0.00 78 1011.2
20260505032329 64 16 3.5 7.8 0.00 0.00 0.00 78 1011.1
20260505032229 64 15 4.3 7.8 0.00 0.00 0.00 78 1011.4
20260505032108 63 16 2.6 7.8 0.00 0.00 0.00 78 1011.0
20260505032029 63 14 3.5 7.8 0.00 0.00 0.00 78 1011.0
20260505031908 63 11 3.5 7.8 0.00 0.00 0.00 78 1011.1
20260505031829 63 9 3.5 7.8 0.00 0.00 0.00 78 1011.1
20260505031708 63 10 3.5 7.8 0.00 0.00 0.00 78 1011.3
20260505031608 63 9 3.5 7.8 0.00 0.00 0.00 78 1011.0
20260505031508 63 11 3.5 7.8 0.00 0.00 0.00 78 1011.2
20260505031408 63 14 2.6 7.0 0.00 0.00 0.00 78 1011.0
20260505031308 63 14 3.5 7.0 0.00 0.00 0.00 78 1011.0
20260505031208 63 13 2.6 7.0 0.00 0.00 0.00 78 1011.2
20260505031129 63 11 2.6 7.0 0.00 0.00 0.00 78 1011.1
20260505031008 63 12 2.6 7.0 0.00 0.00 0.00 78 1010.9
20260505030908 63 13 3.5 7.0 0.00 0.00 0.00 78 1011.0
20260505030808 63 14 3.5 7.0 0.00 0.00 0.00 78 1011.0
20260505030708 63 11 2.6 6.1 0.00 0.00 0.00 78 1011.1
20260505030629 63 10 2.6 6.1 0.00 0.00 0.00 78 1011.1
20260505030508 63 8 1.7 6.1 0.00 0.00 0.00 78 1011.0
20260505030408 63 3 2.6 6.1 0.00 0.00 0.00 78 1011.0
20260505030308 63 1 3.5 6.1 0.00 0.00 0.00 78 1010.8
20260505030208 63 1 3.5 6.1 0.00 0.00 0.00 78 1010.9
20260505030108 63 2 3.5 6.1 0.00 0.00 0.00 78 1010.9
20260505030009 63 360 3.5 5.2 0.00 0.00 0.00 78 1010.9
20260505025908 63 357 2.6 5.2 0.00 0.00 0.00 78 1011.0
20260505025808 63 358 3.5 5.2 0.00 0.00 0.00 78 1011.1
20260505025708 63 358 3.5 6.1 0.00 0.00 0.00 78 1011.0
20260505025608 63 2 3.5 6.1 0.00 0.00 0.00 78 1010.8
20260505025508 63 1 2.6 6.1 0.00 0.00 0.00 78 1011.1
20260505025408 63 3 3.5 6.1 0.00 0.00 0.00 78 1011.0
20260505025329 63 5 3.5 6.1 0.00 0.00 0.00 78 1011.0
20260505025208 63 7 3.5 7.0 0.00 0.00 0.00 78 1011.0
20260505025108 63 8 3.5 7.0 0.00 0.00 0.00 78 1010.9
20260505025008 63 10 2.6 7.0 0.00 0.00 0.00 78 1010.8
20260505024908 63 10 3.5 7.0 0.00 0.00 0.00 78 1010.9
20260505024808 63 11 3.5 7.0 0.00 0.00 0.00 78 1010.8
20260505024708 63 11 3.5 7.0 0.00 0.00 0.00 78 1010.8
20260505024608 63 8 2.6 7.0 0.00 0.00 0.00 78 1010.9
20260505024508 63 7 2.6 7.0 0.00 0.00 0.00 78 1010.8
20260505024408 63 9 3.5 7.0 0.00 0.00 0.00 78 1010.8
20260505024308 63 7 3.5 7.0 0.00 0.00 0.00 78 1010.7
20260505024208 63 10 3.5 7.0 0.00 0.00 0.00 78 1010.7
20260505024108 63 11 2.6 6.1 0.00 0.00 0.00 79 1010.8
20260505024008 63 9 3.5 7.0 0.00 0.00 0.00 79 1010.8
20260505023908 63 10 3.5 7.0 0.00 0.00 0.00 79 1010.8
20260505023808 63 13 3.5 7.0 0.00 0.00 0.00 79 1010.8
20260505023709 63 14 3.5 7.0 0.00 0.00 0.00 79 1010.7
20260505023608 63 16 3.5 7.0 0.00 0.00 0.00 79 1010.9
20260505023508 63 17 3.5 7.0 0.00 0.00 0.00 78 1010.7
20260505023408 63 16 2.6 7.0 0.00 0.00 0.00 78 1010.8
20260505023308 63 17 3.5 7.0 0.00 0.00 0.00 78 1010.9
20260505023208 63 17 3.5 7.0 0.00 0.00 0.00 78 1010.8
20260505023108 63 16 4.3 7.0 0.00 0.00 0.00 78 1010.9
20260505023008 63 17 3.5 6.1 0.00 0.00 0.00 78 1010.9
20260505022908 63 15 3.5 6.1 0.00 0.00 0.00 78 1010.7
20260505022808 63 13 2.6 5.2 0.00 0.00 0.00 78 1010.9
20260505022708 63 12 2.6 5.2 0.00 0.00 0.00 78 1010.7
20260505022608 63 12 3.5 5.2 0.00 0.00 0.00 78 1010.9
20260505022508 63 11 2.6 5.2 0.00 0.00 0.00 78 1010.7
20260505022408 63 11 1.7 5.2 0.00 0.00 0.00 78 1010.8
20260505022308 63 10 3.5 5.2 0.00 0.00 0.00 78 1010.7
20260505022229 63 8 3.5 5.2 0.00 0.00 0.00 78 1010.7
20260505022129 63 9 2.6 5.2 0.00 0.00 0.00 78 1010.6
20260505022008 63 11 2.6 6.1 0.00 0.00 0.00 78 1010.6
20260505021908 63 13 2.6 6.1 0.00 0.00 0.00 78 1010.6
20260505021808 63 12 2.6 6.1 0.00 0.00 0.00 78 1010.6
20260505021708 62 13 2.6 6.1 0.00 0.00 0.00 78 1010.7
20260505021608 62 10 2.6 6.1 0.00 0.00 0.00 78 1010.5
20260505021508 62 10 1.7 6.1 0.00 0.00 0.00 78 1010.7
20260505021408 62 10 2.6 6.1 0.00 0.00 0.00 78 1010.7
20260505021308 62 9 2.6 6.1 0.00 0.00 0.00 78 1010.5
20260505021229 62 10 2.6 6.1 0.00 0.00 0.00 78 1010.6
20260505021108 62 11 3.5 6.1 0.00 0.00 0.00 78 1010.6
20260505021008 62 11 3.5 5.2 0.00 0.00 0.00 78 1010.6
20260505020908 62 9 2.6 6.1 0.00 0.00 0.00 78 1010.6
20260505020808 62 8 2.6 6.1 0.00 0.00 0.00 78 1010.6
20260505020708 62 7 2.6 6.1 0.00 0.00 0.00 77 1010.5
20260505020608 62 9 1.7 6.1 0.00 0.00 0.00 77 1010.6
20260505020508 62 9 2.6 6.1 0.00 0.00 0.00 77 1010.6
20260505020408 63 9 2.6 6.1 0.00 0.00 0.00 77 1010.6
20260505020308 63 9 2.6 6.1 0.00 0.00 0.00 77 1010.6
20260505020208 63 8 2.6 6.1 0.00 0.00 0.00 77 1010.5
20260505020129 63 10 2.6 6.1 0.00 0.00 0.00 77 1010.5
20260505020009 63 3 2.6 6.1 0.00 0.00 0.00 77 1010.7
20260505015908 63 2 2.6 6.1 0.00 0.00 0.00 77 1010.8
20260505015808 63 1 2.6 6.1 0.00 0.00 0.00 77 1010.5
20260505015708 63 359 2.6 6.1 0.00 0.00 0.00 77 1010.6
20260505015629 63 359 2.6 6.1 0.00 0.00 0.00 77 1010.4
20260505015508 63 356 1.7 6.1 0.00 0.00 0.00 76 1010.5
20260505015408 63 355 1.7 6.1 0.00 0.00 0.00 76 1010.7
20260505015329 63 354 2.6 6.1 0.00 0.00 0.00 76 1010.5
20260505015208 63 354 2.6 6.1 0.00 0.00 0.00 76 1010.6
20260505015108 63 351 3.5 6.1 0.00 0.00 0.00 76 1010.6
20260505015008 63 351 2.6 5.2 0.00 0.00 0.00 76 1010.5
20260505014908 63 350 2.6 5.2 0.00 0.00 0.00 76 1010.5
20260505014829 63 351 1.7 5.2 0.00 0.00 0.00 76 1010.5
20260505014708 63 355 2.6 5.2 0.00 0.00 0.00 76 1010.7
20260505014608 63 358 1.7 5.2 0.00 0.00 0.00 76 1010.6
20260505014508 63 358 2.6 5.2 0.00 0.00 0.00 76 1010.5
20260505014408 63 359 1.7 5.2 0.00 0.00 0.00 76 1010.6
20260505014308 63 1 2.6 5.2 0.00 0.00 0.00 76 1010.5
20260505014208 63 360 1.7 5.2 0.00 0.00 0.00 75 1010.6
20260505014108 63 3 1.7 5.2 0.00 0.00 0.00 75 1010.6
20260505014008 63 6 1.7 5.2 0.00 0.00 0.00 75 1010.6
20260505013908 63 9 2.6 5.2 0.00 0.00 0.00 75 1010.5
20260505013808 63 11 2.6 5.2 0.00 0.00 0.00 75 1010.6
20260505013708 63 12 3.5 7.0 0.00 0.00 0.00 75 1010.5
20260505013608 63 12 2.6 7.0 0.00 0.00 0.00 75 1010.6
20260505013508 63 11 1.7 7.0 0.00 0.00 0.00 75 1010.6
20260505013429 63 13 1.7 7.0 0.00 0.00 0.00 75 1010.6
20260505013308 64 14 1.7 7.0 0.00 0.00 0.00 75 1010.6
20260505013208 64 17 1.7 7.0 0.00 0.00 0.00 75 1010.5
20260505013108 64 16 2.6 7.0 0.00 0.00 0.00 76 1010.5
20260505013008 64 14 1.7 7.0 0.00 0.00 0.00 76 1010.5
20260505012908 64 15 2.6 7.0 0.00 0.00 0.00 76 1010.3
20260505012808 63 14 2.6 7.0 0.00 0.00 0.00 76 1010.5
20260505012708 63 14 3.5 6.1 0.00 0.00 0.00 77 1010.5
20260505012607 63 15 3.5 6.1 0.00 0.00 0.00 77 1010.6
20260505012508 63 21 2.6 5.2 0.00 0.00 0.00 77 1010.5
20260505012408 63 19 2.6 5.2 0.00 0.00 0.00 78 1010.3
20260505012308 63 21 1.7 5.2 0.00 0.00 0.00 78 1010.5
20260505012208 63 21 1.7 5.2 0.00 0.00 0.00 78 1010.6
20260505012108 62 20 1.7 5.2 0.00 0.00 0.00 78 1010.5
20260505012008 62 22 1.7 5.2 0.00 0.00 0.00 79 1010.5
20260505011908 62 24 1.7 5.2 0.00 0.00 0.00 79 1010.4
20260505011808 62 25 1.7 5.2 0.00 0.00 0.00 79 1010.4
20260505011729 62 24 2.6 5.2 0.00 0.00 0.00 79 1010.5
20260505011629 62 25 2.6 5.2 0.00 0.00 0.00 79 1010.6
20260505011508 62 27 2.6 3.5 0.00 0.00 0.00 80 1010.4
20260505011408 62 28 2.6 5.2 0.00 0.00 0.00 80 1010.4
20260505011308 62 30 2.6 5.2 0.00 0.00 0.00 80 1010.5
20260505011208 62 31 1.7 5.2 0.00 0.00 0.00 80 1010.4
20260505011108 62 32 1.7 5.2 0.00 0.00 0.00 80 1010.5
20260505011008 62 34 2.6 5.2 0.00 0.00 0.00 80 1010.6
20260505010908 62 33 1.7 5.2 0.00 0.00 0.00 80 1010.5
20260505010829 62 34 2.6 5.2 0.00 0.00 0.00 80 1010.6
20260505010708 62 39 2.6 5.2 0.00 0.00 0.00 81 1010.4
20260505010608 62 39 1.7 5.2 0.00 0.00 0.00 81 1010.4
20260505010508 62 36 2.6 5.2 0.00 0.00 0.00 81 1010.3
20260505010408 62 36 3.5 5.2 0.00 0.00 0.00 81 1010.5
20260505010308 62 36 2.6 5.2 0.00 0.00 0.00 81 1010.5
20260505010208 62 36 3.5 5.2 0.00 0.00 0.00 81 1010.5
20260505010108 62 38 1.7 3.5 0.00 0.00 0.00 81 1010.5
20260505010009 62 40 1.7 3.5 0.00 0.00 0.00 81 1010.5
20260505005908 62 41 1.7 3.5 0.00 0.00 0.00 81 1010.5
20260505005808 62 40 2.6 3.5 0.00 0.00 0.00 81 1010.6
20260505005729 62 40 1.7 3.5 0.00 0.00 0.00 81 1010.6
20260505005608 62 37 1.7 3.5 0.00 0.00 0.00 81 1010.6
20260505005529 62 38 1.7 3.5 0.00 0.00 0.00 81 1010.5
20260505005408 62 39 1.7 3.5 0.00 0.00 0.00 81 1010.4
20260505005308 62 40 1.7 3.5 0.00 0.00 0.00 81 1010.4
20260505005208 62 40 1.7 3.5 0.00 0.00 0.00 81 1010.4
20260505005108 62 39 1.7 3.5 0.00 0.00 0.00 81 1010.5
20260505005029 62 39 1.7 3.5 0.00 0.00 0.00 81 1010.5
20260505004908 62 39 1.7 3.5 0.00 0.00 0.00 81 1010.3
20260505004808 62 40 1.7 3.5 0.00 0.00 0.00 81 1010.3
20260505004729 62 40 1.7 3.5 0.00 0.00 0.00 80 1010.4
20260505004629 62 42 1.7 3.5 0.00 0.00 0.00 80 1010.3
20260505004529 62 45 1.7 3.5 0.00 0.00 0.00 80 1010.4
20260505004408 62 45 1.7 3.5 0.00 0.00 0.00 80 1010.3
20260505004308 62 45 0.0 1.7 0.00 0.00 0.00 80 1010.3
20260505004208 62 45 0.9 1.7 0.00 0.00 0.00 80 1010.5
20260505004108 62 45 0.9 1.7 0.00 0.00 0.00 80 1010.4
20260505004029 62 43 0.9 1.7 0.00 0.00 0.00 80 1010.4
20260505003929 62 43 0.9 1.7 0.00 0.00 0.00 80 1010.4
20260505003808 62 43 0.9 1.7 0.00 0.00 0.00 80 1010.4
20260505003708 62 43 0.9 1.7 0.00 0.00 0.00 80 1010.4
20260505003629 62 41 0.9 1.7 0.00 0.00 0.00 80 1010.3
20260505003508 62 40 0.9 1.7 0.00 0.00 0.00 80 1010.3
20260505003408 62 40 1.7 1.7 0.00 0.00 0.00 80 1010.4
20260505003308 62 40 1.7 1.7 0.00 0.00 0.00 80 1010.3
20260505003208 62 40 1.7 1.7 0.00 0.00 0.00 80 1010.4
20260505003108 62 39 1.7 1.7 0.00 0.00 0.00 79 1010.3
20260505003029 62 39 1.7 1.7 0.00 0.00 0.00 79 1010.3
20260505002908 62 40 1.7 1.7 0.00 0.00 0.00 79 1010.2
20260505002830 62 40 1.7 1.7 0.00 0.00 0.00 79 1010.3
20260505002708 62 38 0.9 1.7 0.00 0.00 0.00 79 1010.3
20260505002608 62 38 0.9 1.7 0.00 0.00 0.00 79 1010.5
20260505002529 62 39 1.7 1.7 0.00 0.00 0.00 79 1010.4
20260505002408 62 36 1.7 1.7 0.00 0.00 0.00 78 1010.6
20260505002308 62 34 0.9 1.7 0.00 0.00 0.00 78 1010.4
20260505002208 62 31 0.9 1.7 0.00 0.00 0.00 78 1010.3
20260505002108 62 30 1.7 1.7 0.00 0.00 0.00 78 1010.2
20260505002029 62 30 0.9 1.7 0.00 0.00 0.00 78 1010.4
20260505001908 62 28 0.9 3.5 0.00 0.00 0.00 78 1010.2
20260505001808 62 26 0.9 3.5 0.00 0.00 0.00 78 1010.3
20260505001708 62 26 0.9 3.5 0.00 0.00 0.00 78 1010.3
20260505001508 62 24 0.9 3.5 0.00 0.00 0.00 78 1010.3
20260505001408 62 24 0.9 3.5 0.00 0.00 0.00 78 1010.3
20260505001329 62 24 0.9 3.5 0.00 0.00 0.00 78 1010.3
20260505001208 62 27 0.9 3.5 0.00 0.00 0.00 78 1010.4
20260505001108 62 29 0.9 3.5 0.00 0.00 0.00 78 1010.2
20260505001008 62 31 0.9 3.5 0.00 0.00 0.00 78 1010.3
20260505000908 62 32 1.7 3.5 0.00 0.00 0.00 78 1010.3
20260505000808 62 35 0.9 1.7 0.00 0.00 0.00 79 1010.2
20260505000708 62 38 0.0 1.7 0.00 0.00 0.00 79 1010.3
20260505000629 62 38 0.0 1.7 0.00 0.00 0.00 79 1010.3
20260505000508 62 41 0.0 1.7 0.00 0.00 0.00 79 1010.4
20260505000408 62 43 0.9 1.7 0.00 0.00 0.00 79 1010.4
20260505000308 62 45 0.9 1.7 0.00 0.00 0.00 79 1010.1
20260505000208 62 45 0.9 1.7 0.00 0.00 0.00 79 1010.3
20260505000108 62 43 0.9 1.7 0.00 0.00 0.00 79 1010.3
20260505000008 63 40 1.7 1.7 0.00 0.00 0.00 78 1010.3
20260504235908 63 38 0.9 1.7 0.00 0.00 0.00 78 1010.2
20260504235808 63 36 1.7 1.7 0.00 0.00 0.00 78 1010.3
20260504235729 63 35 0.9 1.7 0.00 0.00 0.00 78 1010.3
20260504235608 63 34 0.9 1.7 0.00 0.00 0.00 78 1010.2
20260504235508 63 33 1.7 1.7 0.00 0.00 0.00 78 1010.3
20260504235408 63 32 0.9 1.7 0.00 0.00 0.00 78 1010.2
20260504235308 63 32 0.9 1.7 0.00 0.00 0.00 78 1010.2
20260504235229 63 32 1.7 1.7 0.00 0.00 0.00 78 1010.0
20260504235108 63 34 1.7 1.7 0.00 0.00 0.00 78 1010.2
20260504235008 63 37 1.7 1.7 0.00 0.00 0.00 78 1010.0
20260504234908 63 39 0.9 1.7 0.00 0.00 0.00 78 1010.1
20260504234808 63 41 0.9 1.7 0.00 0.00 0.00 78 1010.1
20260504234708 63 44 0.9 1.7 0.00 0.00 0.00 78 1010.2
20260504234629 63 44 0.9 1.7 0.00 0.00 0.00 78 1010.2
20260504234508 63 44 0.0 1.7 0.00 0.00 0.00 78 1010.1
20260504234408 63 45 0.9 1.7 0.00 0.00 0.00 78 1010.2
20260504234308 63 45 1.7 1.7 0.00 0.00 0.00 78 1010.1
20260504234208 63 45 1.7 1.7 0.00 0.00 0.00 77 1010.1
20260504234108 63 45 1.7 1.7 0.00 0.00 0.00 77 1010.1
20260504234008 63 45 1.7 1.7 0.00 0.00 0.00 77 1010.1
20260504233908 63 45 0.9 1.7 0.00 0.00 0.00 77 1010.0
20260504233808 63 45 0.9 1.7 0.00 0.00 0.00 77 1010.0
20260504233708 63 45 0.9 1.7 0.00 0.00 0.00 77 1010.0
20260504233608 63 45 0.9 3.5 0.00 0.00 0.00 77 1010.0
20260504233529 63 44 0.0 3.5 0.00 0.00 0.00 77 1010.1
20260504233408 63 43 0.9 3.5 0.00 0.00 0.00 77 1010.0
20260504233308 63 41 0.9 3.5 0.00 0.00 0.00 77 1010.1
20260504233208 63 42 0.9 3.5 0.00 0.00 0.00 77 1010.0
20260504233108 63 42 0.9 3.5 0.00 0.00 0.00 77 1010.1
20260504233008 63 40 0.9 3.5 0.00 0.00 0.00 77 1009.8
20260504232908 63 39 0.9 3.5 0.00 0.00 0.00 77 1009.8
20260504232808 63 37 1.7 3.5 0.00 0.00 0.00 77 1009.8
20260504232708 63 35 1.7 3.5 0.00 0.00 0.00 77 1010.0
20260504232608 63 32 0.9 3.5 0.00 0.00 0.00 77 1009.8
20260504232508 63 31 0.9 3.5 0.00 0.00 0.00 77 1009.8
20260504232408 63 30 1.7 3.5 0.00 0.00 0.00 77 1009.7
20260504232308 63 30 1.7 3.5 0.00 0.00 0.00 77 1009.8
20260504232208 63 30 1.7 3.5 0.00 0.00 0.00 77 1009.7
20260504232108 63 29 1.7 1.7 0.00 0.00 0.00 77 1009.8
20260504232008 63 30 1.7 3.5 0.00 0.00 0.00 77 1009.8
20260504231908 63 31 0.9 3.5 0.00 0.00 0.00 77 1009.8
20260504231808 64 32 0.9 3.5 0.00 0.00 0.00 77 1009.7
20260504231708 64 34 0.9 3.5 0.00 0.00 0.00 77 1009.7
20260504231608 64 33 1.7 3.5 0.00 0.00 0.00 77 1009.8
20260504231508 64 33 1.7 3.5 0.00 0.00 0.00 76 1009.7
20260504231408 64 35 1.7 3.5 0.00 0.00 0.00 76 1009.7
20260504231308 64 37 1.7 3.5 0.00 0.00 0.00 76 1009.6
20260504231208 64 36 1.7 3.5 0.00 0.00 0.00 76 1009.6
20260504231108 64 35 1.7 3.5 0.00 0.00 0.00 76 1009.5
20260504231008 64 34 2.6 3.5 0.00 0.00 0.00 76 1009.6
20260504230929 64 34 1.7 3.5 0.00 0.00 0.00 76 1009.7
20260504230808 64 33 1.7 3.5 0.00 0.00 0.00 76 1009.7
20260504230708 64 33 1.7 3.5 0.00 0.00 0.00 76 1009.5
20260504230608 64 36 1.7 3.5 0.00 0.00 0.00 76 1009.7
20260504230508 64 38 1.7 3.5 0.00 0.00 0.00 76 1009.5
20260504230408 64 37 1.7 3.5 0.00 0.00 0.00 76 1009.6
20260504230308 64 37 1.7 3.5 0.00 0.00 0.00 76 1009.6
20260504230208 64 38 1.7 3.5 0.00 0.00 0.00 76 1009.5
20260504230129 64 39 1.7 3.5 0.00 0.00 0.00 76 1009.5
20260504230008 64 38 1.7 3.5 0.00 0.00 0.00 76 1009.5
20260504225908 64 42 1.7 3.5 0.00 0.00 0.00 75 1009.5
20260504225829 64 43 1.7 3.5 0.00 0.00 0.00 75 1009.5
20260504225708 64 41 1.7 3.5 0.00 0.00 0.00 75 1009.6
20260504225608 64 41 1.7 3.5 0.00 0.00 0.00 75 1009.7
20260504225508 64 41 1.7 3.5 0.00 0.00 0.00 75 1009.6
20260504225408 64 39 1.7 3.5 0.00 0.00 0.00 74 1009.5
20260504225308 64 37 1.7 3.5 0.00 0.00 0.00 74 1009.5
20260504225208 64 36 1.7 3.5 0.00 0.00 0.00 74 1009.6
20260504225108 65 34 1.7 3.5 0.00 0.00 0.00 74 1009.4
20260504225008 65 33 1.7 3.5 0.00 0.00 0.00 74 1009.4
20260504224929 65 31 1.7 3.5 0.00 0.00 0.00 74 1009.4
20260504224808 65 28 2.6 3.5 0.00 0.00 0.00 74 1009.5
20260504224729 64 27 1.7 3.5 0.00 0.00 0.00 74 1009.4
20260504224629 64 25 1.7 3.5 0.00 0.00 0.00 74 1009.2
20260504224508 64 22 1.7 3.5 0.00 0.00 0.00 74 1009.3
20260504224408 64 22 1.7 3.5 0.00 0.00 0.00 74 1009.2
20260504224308 64 22 1.7 3.5 0.00 0.00 0.00 74 1009.5
20260504224207 64 24 1.7 3.5 0.00 0.00 0.00 74 1009.1
20260504224108 64 24 1.7 3.5 0.00 0.00 0.00 75 1009.3
20260504224007 64 24 1.7 3.5 0.00 0.00 0.00 75 1009.2
20260504223908 65 24 1.7 3.5 0.00 0.00 0.00 75 1009.2
20260504223829 65 24 1.7 3.5 0.00 0.00 0.00 75 1009.2
20260504223708 65 25 1.7 3.5 0.00 0.00 0.00 75 1009.2
20260504223608 65 25 1.7 3.5 0.00 0.00 0.00 75 1009.3
20260504223508 65 26 1.7 3.5 0.00 0.00 0.00 75 1009.2
20260504223408 65 28 1.7 3.5 0.00 0.00 0.00 75 1009.1
20260504223308 65 28 1.7 3.5 0.00 0.00 0.00 75 1009.3
20260504223208 65 29 1.7 3.5 0.00 0.00 0.00 75 1009.3
20260504223108 65 28 1.7 3.5 0.00 0.00 0.00 75 1009.3
20260504223008 64 28 1.7 3.5 0.00 0.00 0.00 75 1009.3
20260504222908 64 28 1.7 3.5 0.00 0.00 0.00 75 1009.2
20260504222808 65 30 1.7 1.7 0.00 0.00 0.00 75 1009.2
20260504222729 65 30 1.7 1.7 0.00 0.00 0.00 75 1009.1
20260504222608 65 31 0.9 1.7 0.00 0.00 0.00 75 1009.1
20260504222508 65 33 0.9 1.7 0.00 0.00 0.00 75 1009.3
20260504222408 65 30 0.9 1.7 0.00 0.00 0.00 75 1009.1
20260504222308 65 30 1.7 1.7 0.00 0.00 0.00 75 1009.1
20260504222208 65 28 1.7 1.7 0.00 0.00 0.00 75 1009.1
20260504222107 65 28 1.7 1.7 0.00 0.00 0.00 75 1009.2
20260504222008 65 28 0.9 1.7 0.00 0.00 0.00 75 1009.2
20260504221908 65 28 0.9 1.7 0.00 0.00 0.00 75 1009.0
20260504221808 65 28 0.0 1.7 0.00 0.00 0.00 75 1009.2
20260504221708 65 27 0.0 1.7 0.00 0.00 0.00 75 1009.3
20260504221608 65 25 0.9 3.5 0.00 0.00 0.00 75 1009.2
20260504221508 65 25 0.9 3.5 0.00 0.00 0.00 75 1009.3
20260504221408 65 25 1.7 3.5 0.00 0.00 0.00 75 1009.3
20260504221308 65 25 0.9 3.5 0.00 0.00 0.00 75 1009.0
20260504221208 65 29 1.7 3.5 0.00 0.00 0.00 75 1009.2
20260504221129 65 30 0.9 3.5 0.00 0.00 0.00 75 1009.0
20260504221008 65 31 0.9 3.5 0.00 0.00 0.00 75 1009.1
20260504220929 65 31 1.7 3.5 0.00 0.00 0.00 75 1009.0
20260504220808 65 30 1.7 3.5 0.00 0.00 0.00 75 1009.0
20260504220708 65 30 1.7 3.5 0.00 0.00 0.00 75 1008.9
20260504220608 65 30 1.7 3.5 0.00 0.00 0.00 75 1009.1
20260504220508 65 31 1.7 3.5 0.00 0.00 0.00 75 1009.0
20260504220429 65 31 1.7 3.5 0.00 0.00 0.00 75 1009.2
20260504220308 65 34 1.7 3.5 0.00 0.00 0.00 74 1009.1
20260504220208 65 33 1.7 3.5 0.00 0.00 0.00 74 1009.1
20260504220108 65 32 0.9 1.7 0.00 0.00 0.00 74 1009.0
20260504220029 65 34 0.9 1.7 0.00 0.00 0.00 74 1008.9
20260504215908 66 33 0.9 1.7 0.00 0.00 0.00 74 1008.9
20260504215808 66 33 0.0 1.7 0.00 0.00 0.00 73 1008.9
20260504215708 66 33 0.0 1.7 0.00 0.00 0.00 73 1009.0
20260504215629 66 33 0.9 1.7 0.00 0.00 0.00 73 1008.9
20260504215508 66 33 0.0 1.7 0.00 0.00 0.00 72 1009.1
20260504215408 66 32 0.0 1.7 0.00 0.00 0.00 72 1009.0
20260504215329 66 31 0.9 1.7 0.00 0.00 0.00 72 1009.0
20260504215229 66 31 0.0 1.7 0.00 0.00 0.00 71 1009.0
20260504215108 66 29 0.9 1.7 0.00 0.00 0.00 71 1009.0
20260504215008 66 27 0.9 1.7 0.00 0.00 0.00 71 1009.2
20260504214929 66 28 0.9 1.7 0.00 0.00 0.00 70 1008.9
20260504214829 67 28 0.9 1.7 0.00 0.00 0.00 70 1009.1
20260504214708 67 29 0.9 1.7 0.00 0.00 0.00 69 1008.9
20260504214608 67 29 0.9 1.7 0.00 0.00 0.00 68 1009.2
20260504214529 67 28 0.0 1.7 0.00 0.00 0.00 68 1008.9
20260504214408 66 27 0.0 1.7 0.00 0.00 0.00 68 1008.9
20260504214308 66 26 0.9 1.7 0.00 0.00 0.00 67 1009.0
20260504214208 66 24 0.9 1.7 0.00 0.00 0.00 67 1009.0
20260504214108 66 24 0.9 1.7 0.00 0.00 0.00 67 1008.8
20260504214008 67 24 0.9 1.7 0.00 0.00 0.00 66 1008.9
20260504213929 67 24 0.9 1.7 0.00 0.00 0.00 66 1008.8
20260504213832 67 24 0.9 1.7 0.00 0.00 0.00 66 1009.0
20260504213708 67 22 0.0 1.7 0.00 0.00 0.00 65 1008.9
20260504213608 67 22 0.0 1.7 0.00 0.00 0.00 65 1008.8
20260504213529 67 22 0.9 1.7 0.00 0.00 0.00 65 1008.8
20260504213429 67 22 0.9 1.7 0.00 0.00 0.00 64 1008.8
20260504213308 67 22 0.9 1.7 0.00 0.00 0.00 63 1008.9
20260504213208 67 22 0.9 1.7 0.00 0.00 0.00 63 1008.8
20260504213108 67 22 0.9 1.7 0.00 0.00 0.00 63 1008.9
20260504213008 67 22 1.7 1.7 0.00 0.00 0.00 63 1008.8
20260504212907 67 22 1.7 1.7 0.00 0.00 0.00 63 1009.0
20260504212808 67 22 1.7 1.7 0.00 0.00 0.00 63 1008.8
20260504212707 68 22 1.7 1.7 0.00 0.00 0.00 63 1008.8
20260504212608 68 22 1.7 1.7 0.00 0.00 0.00 63 1008.9
20260504212507 68 22 1.7 1.7 0.00 0.00 0.00 63 1009.1
20260504212407 68 22 1.7 1.7 0.00 0.00 0.00 63 1008.9
20260504212308 68 22 0.9 1.7 0.00 0.00 0.00 63 1009.1
20260504212208 68 22 0.9 1.7 0.00 0.00 0.00 62 1009.0
20260504212108 68 22 0.9 1.7 0.00 0.00 0.00 62 1009.1
20260504212008 68 22 0.9 1.7 0.00 0.00 0.00 62 1009.1
20260504211908 68 22 1.7 1.7 0.00 0.00 0.00 61 1009.1
20260504211808 68 22 0.9 1.7 0.00 0.00 0.00 61 1009.1
20260504211729 68 22 1.7 1.7 0.00 0.00 0.00 61 1009.2
20260504211608 69 22 1.7 1.7 0.00 0.00 0.00 60 1009.0
20260504211508 69 22 0.9 1.7 0.00 0.00 0.00 60 1009.1
20260504211408 69 22 0.0 1.7 0.00 0.00 0.00 59 1009.1
20260504211308 69 22 0.9 1.7 0.00 0.00 0.00 59 1009.1
20260504211207 69 22 1.7 1.7 0.00 0.00 0.00 59 1009.0
20260504211108 69 22 1.7 1.7 0.00 0.00 0.00 59 1009.0
20260504211008 69 22 0.9 1.7 0.00 0.00 0.00 58 1009.0
20260504210908 69 22 0.9 1.7 0.00 0.00 0.00 58 1009.1
20260504210808 69 22 0.9 1.7 0.00 0.00 0.00 58 1009.1
20260504210707 69 22 0.9 1.7 0.00 0.00 0.00 58 1009.2
20260504210607 69 22 0.9 1.7 0.00 0.00 0.00 57 1009.2
20260504210508 69 22 0.9 1.7 0.00 0.00 0.00 57 1009.0
20260504210408 70 22 1.7 1.7 0.00 0.00 0.00 57 1009.0
20260504210308 70 22 1.7 1.7 0.00 0.00 0.00 57 1009.0
20260504210208 70 22 1.7 1.7 0.00 0.00 0.00 57 1009.1
20260504210108 70 22 0.9 1.7 0.00 0.00 0.00 57 1009.1
20260504210008 70 22 1.7 1.7 0.00 0.00 0.00 57 1009.1
20260504205908 70 22 1.7 1.7 0.00 0.00 0.00 56 1009.3
20260504205808 71 22 0.9 1.7 0.00 0.00 0.00 56 1009.2
20260504205708 71 22 1.7 1.7 0.00 0.00 0.00 56 1009.2
20260504205630 71 22 0.9 1.7 0.00 0.00 0.00 56 1009.2
20260504205508 71 22 0.9 1.7 0.00 0.00 0.00 55 1009.2
20260504205408 71 22 0.9 1.7 0.00 0.00 0.00 55 1009.2
20260504205308 71 22 0.9 1.7 0.00 0.00 0.00 55 1009.4
20260504205208 71 22 0.9 1.7 0.00 0.00 0.00 55 1009.5
20260504205108 71 22 0.9 1.7 0.00 0.00 0.00 55 1009.2
20260504205008 71 22 0.9 1.7 0.00 0.00 0.00 55 1009.3
20260504204908 71 22 0.9 1.7 0.00 0.00 0.00 55 1009.2
20260504204808 71 22 0.9 1.7 0.00 0.00 0.00 54 1009.2
20260504204707 71 22 1.7 1.7 0.00 0.00 0.00 54 1009.3
20260504204608 71 22 0.9 1.7 0.00 0.00 0.00 54 1009.4
20260504204507 71 22 0.0 1.7 0.00 0.00 0.00 54 1009.3
20260504204408 71 22 0.9 1.7 0.00 0.00 0.00 54 1009.2
20260504204308 71 22 1.7 1.7 0.00 0.00 0.00 54 1009.2
20260504204208 71 22 1.7 1.7 0.00 0.00 0.00 55 1009.3
20260504204108 71 22 0.9 1.7 0.00 0.00 0.00 55 1009.2
20260504204030 72 20 1.7 1.7 0.00 0.00 0.00 54 1009.3
20260504203908 72 20 0.9 1.7 0.00 0.00 0.00 54 1009.3
20260504203808 72 18 0.9 1.7 0.00 0.00 0.00 53 1009.2
20260504203708 72 19 0.9 3.5 0.00 0.00 0.00 54 1009.1
20260504203608 72 16 0.9 3.5 0.00 0.00 0.00 54 1009.1
20260504203508 72 15 0.9 3.5 0.00 0.00 0.00 54 1009.1
20260504203408 72 13 0.9 3.5 0.00 0.00 0.00 53 1009.1
20260504203308 72 13 0.9 3.5 0.00 0.00 0.00 53 1009.0
20260504203208 72 10 0.9 3.5 0.00 0.00 0.00 53 1009.0
20260504203108 72 7 0.9 3.5 0.00 0.00 0.00 54 1009.2
20260504203008 72 6 1.7 3.5 0.00 0.00 0.00 53 1009.1
20260504202928 72 5 1.7 3.5 0.00 0.00 0.00 53 1009.1
20260504202808 72 4 1.7 3.5 0.00 0.00 0.00 53 1009.1
20260504202729 72 4 1.7 3.5 0.00 0.00 0.00 53 1009.1
20260504202608 72 6 1.7 3.5 0.00 0.00 0.00 52 1009.1
20260504202508 72 4 1.7 3.5 0.00 0.00 0.00 53 1009.1
20260504202408 72 3 1.7 3.5 0.00 0.00 0.00 53 1009.1
20260504202307 72 2 1.7 3.5 0.00 0.00 0.00 53 1009.0
20260504202229 72 2 1.7 5.2 0.00 0.00 0.00 53 1009.0
20260504202129 72 5 1.7 5.2 0.00 0.00 0.00 53 1009.0
20260504202007 72 7 1.7 5.2 0.00 0.00 0.00 53 1008.9
20260504201908 72 6 1.7 5.2 0.00 0.00 0.00 53 1009.1
20260504201829 72 6 1.7 5.2 0.00 0.00 0.00 53 1009.1
20260504201708 72 8 2.6 5.2 0.00 0.00 0.00 52 1009.0
20260504201608 72 7 2.6 5.2 0.00 0.00 0.00 53 1009.0
20260504201508 72 9 1.7 5.2 0.00 0.00 0.00 53 1009.0
20260504201408 72 12 2.6 5.2 0.00 0.00 0.00 52 1009.0
20260504201329 72 14 2.6 5.2 0.00 0.00 0.00 52 1009.1
20260504201208 72 18 2.6 5.2 0.00 0.00 0.00 53 1009.0
20260504201108 72 18 1.7 5.2 0.00 0.00 0.00 53 1008.9
20260504201007 72 17 2.6 5.2 0.00 0.00 0.00 52 1009.1
20260504200929 72 18 1.7 5.2 0.00 0.00 0.00 54 1009.0
20260504200808 72 21 1.7 5.2 0.00 0.00 0.00 54 1009.0
20260504200708 72 18 2.6 5.2 0.00 0.00 0.00 54 1008.9
20260504200607 72 19 3.5 5.2 0.00 0.00 0.00 53 1008.9
20260504200508 72 19 2.6 5.2 0.00 0.00 0.00 53 1009.0
20260504200408 72 20 2.6 5.2 0.00 0.00 0.00 53 1009.1
20260504200308 72 19 1.7 5.2 0.00 0.00 0.00 54 1008.9
20260504200229 72 17 1.7 5.2 0.00 0.00 0.00 54 1008.9
20260504200107 72 14 1.7 5.2 0.00 0.00 0.00 53 1009.1
20260504200008 72 14 1.7 5.2 0.00 0.00 0.00 53 1009.0
20260504195907 72 13 1.7 5.2 0.00 0.00 0.00 52 1009.1
20260504195807 72 14 2.6 5.2 0.00 0.00 0.00 52 1009.1
20260504195707 72 16 2.6 5.2 0.00 0.00 0.00 53 1009.0
20260504195607 72 17 3.5 5.2 0.00 0.00 0.00 52 1009.0
20260504195507 72 17 2.6 3.5 0.00 0.00 0.00 53 1009.0
20260504195429 72 16 2.6 3.5 0.00 0.00 0.00 53 1009.0
20260504195307 72 12 1.7 3.5 0.00 0.00 0.00 52 1009.2
20260504195207 72 11 1.7 5.2 0.00 0.00 0.00 53 1009.3
20260504195107 72 6 2.6 5.2 0.00 0.00 0.00 52 1009.1
20260504195029 72 4 2.6 6.1 0.00 0.00 0.00 52 1009.1
20260504194907 72 2 1.7 6.1 0.00 0.00 0.00 53 1009.1
20260504194807 72 1 1.7 6.1 0.00 0.00 0.00 53 1009.1
20260504194708 72 360 1.7 6.1 0.00 0.00 0.00 53 1009.2
20260504194608 72 360 2.6 6.1 0.00 0.00 0.00 53 1009.3
20260504194507 72 360 2.6 6.1 0.00 0.00 0.00 53 1009.2
20260504194407 72 357 2.6 6.1 0.00 0.00 0.00 52 1009.3
20260504194307 72 356 2.6 6.1 0.00 0.00 0.00 52 1009.2
20260504194208 72 355 3.5 6.1 0.00 0.00 0.00 51 1009.2
20260504194107 72 357 2.6 6.1 0.00 0.00 0.00 52 1009.3
20260504194007 72 2 3.5 6.1 0.00 0.00 0.00 52 1009.2
20260504193908 72 1 2.6 6.1 0.00 0.00 0.00 53 1009.3
20260504193807 72 359 2.6 6.1 0.00 0.00 0.00 52 1009.3
20260504193728 72 360 2.6 6.1 0.00 0.00 0.00 52 1009.3
20260504193607 72 357 2.6 6.1 0.00 0.00 0.00 52 1009.1
20260504193507 73 351 2.6 6.1 0.00 0.00 0.00 52 1009.3
20260504193407 73 349 2.6 6.1 0.00 0.00 0.00 51 1009.3
20260504193308 73 349 2.6 7.0 0.00 0.00 0.00 51 1009.1
20260504193207 73 345 2.6 7.8 0.00 0.00 0.00 51 1009.4
20260504193129 73 344 1.7 7.8 0.00 0.00 0.00 51 1009.3
20260504193008 73 341 1.7 7.8 0.00 0.00 0.00 52 1009.4
20260504192907 73 343 1.7 7.8 0.00 0.00 0.00 52 1009.3
20260504192807 72 342 2.6 7.8 0.00 0.00 0.00 51 1009.3
20260504192708 72 339 1.7 7.8 0.00 0.00 0.00 52 1009.4
20260504192628 72 338 1.7 7.8 0.00 0.00 0.00 52 1009.4
20260504192529 73 336 3.5 7.8 0.00 0.00 0.00 51 1009.4
20260504192408 73 335 4.3 7.8 0.00 0.00 0.00 50 1009.5
20260504192328 73 334 3.5 7.8 0.00 0.00 0.00 50 1009.3
20260504192207 73 338 3.5 7.8 0.00 0.00 0.00 51 1009.3
20260504192107 73 340 1.7 7.8 0.00 0.00 0.00 52 1009.3
20260504192008 73 340 2.6 7.8 0.00 0.00 0.00 51 1009.3
20260504191928 73 340 2.6 7.8 0.00 0.00 0.00 51 1009.2
20260504191807 73 342 2.6 7.8 0.00 0.00 0.00 52 1009.2
20260504191730 73 342 1.7 7.8 0.00 0.00 0.00 52 1009.2
20260504191608 73 344 3.5 7.8 0.00 0.00 0.00 51 1009.3
20260504191508 73 346 4.3 7.0 0.00 0.00 0.00 51 1009.5
20260504191408 73 348 3.5 7.0 0.00 0.00 0.00 52 1009.5
20260504191308 73 352 3.5 7.0 0.00 0.00 0.00 51 1009.4
20260504191208 73 353 2.6 7.0 0.00 0.00 0.00 51 1009.3
20260504191107 73 353 1.7 7.0 0.00 0.00 0.00 52 1009.4
20260504191007 73 353 3.5 7.0 0.00 0.00 0.00 51 1009.4
20260504190907 73 351 3.5 7.0 0.00 0.00 0.00 51 1009.4
20260504190807 73 348 3.5 7.0 0.00 0.00 0.00 50 1009.5
20260504190707 73 350 2.6 5.2 0.00 0.00 0.00 51 1009.3
20260504190607 73 351 3.5 5.2 0.00 0.00 0.00 51 1009.4
20260504190507 73 350 2.6 5.2 0.00 0.00 0.00 50 1009.4
20260504190407 73 353 1.7 7.0 0.00 0.00 0.00 51 1009.2
20260504190307 73 352 1.7 7.0 0.00 0.00 0.00 50 1009.5
20260504190207 73 352 2.6 7.0 0.00 0.00 0.00 51 1009.4
20260504190107 73 352 2.6 7.0 0.00 0.00 0.00 51 1009.4
20260504190008 73 348 2.6 7.0 0.00 0.00 0.00 51 1009.5
20260504185907 72 350 1.7 7.0 0.00 0.00 0.00 52 1009.4
20260504185808 72 350 2.6 7.0 0.00 0.00 0.00 51 1009.5
20260504185707 72 349 2.6 7.0 0.00 0.00 0.00 51 1009.4
20260504185608 72 349 2.6 7.0 0.00 0.00 0.00 51 1009.5
20260504185508 72 349 3.5 7.0 0.00 0.00 0.00 50 1009.5
20260504185408 72 346 4.3 7.0 0.00 0.00 0.00 50 1009.6
20260504185308 72 345 3.5 7.0 0.00 0.00 0.00 50 1009.7
20260504185208 72 342 3.5 7.0 0.00 0.00 0.00 50 1009.4
20260504185130 72 343 3.5 7.0 0.00 0.00 0.00 51 1009.4
20260504185008 72 346 2.6 7.8 0.00 0.00 0.00 50 1009.5
20260504184908 73 347 2.6 7.8 0.00 0.00 0.00 50 1009.3
20260504184829 73 350 3.5 7.8 0.00 0.00 0.00 50 1009.5
20260504184708 73 351 1.7 7.8 0.00 0.00 0.00 51 1009.3
20260504184629 73 351 1.7 7.8 0.00 0.00 0.00 51 1009.3
20260504184508 73 350 1.7 7.8 0.00 0.00 0.00 51 1009.4
20260504184408 72 353 1.7 7.8 0.00 0.00 0.00 51 1009.3
20260504184329 72 355 1.7 7.8 0.00 0.00 0.00 51 1009.4
20260504184208 72 359 4.3 7.8 0.00 0.00 0.00 51 1009.4
20260504184129 72 1 3.5 7.8 0.00 0.00 0.00 51 1009.4
20260504184008 72 3 4.3 7.8 0.00 0.00 0.00 51 1009.2
20260504183908 72 356 2.6 7.0 0.00 0.00 0.00 52 1009.4
20260504183807 72 350 3.5 7.8 0.00 0.00 0.00 52 1009.4
20260504183707 72 350 3.5 7.8 0.00 0.00 0.00 51 1009.3
20260504183608 72 347 2.6 7.8 0.00 0.00 0.00 51 1009.4
20260504183507 72 344 1.7 7.8 0.00 0.00 0.00 53 1009.4
20260504183408 72 342 1.7 7.8 0.00 0.00 0.00 53 1009.3
20260504183308 72 341 1.7 7.8 0.00 0.00 0.00 53 1009.4
20260504183229 72 340 2.6 7.8 0.00 0.00 0.00 53 1009.3
20260504183107 72 335 3.5 7.8 0.00 0.00 0.00 52 1009.4
20260504183008 72 336 5.2 7.8 0.00 0.00 0.00 51 1009.5
20260504182908 72 339 5.2 7.8 0.00 0.00 0.00 51 1009.6
20260504182808 72 340 6.1 7.8 0.00 0.00 0.00 52 1009.6
20260504182729 72 342 2.6 6.1 0.00 0.00 0.00 52 1009.6
20260504182608 72 343 2.6 6.1 0.00 0.00 0.00 53 1009.6
20260504182507 72 346 2.6 6.1 0.00 0.00 0.00 53 1009.6
20260504182408 72 345 2.6 6.1 0.00 0.00 0.00 53 1009.6
20260504182308 72 342 3.5 6.1 0.00 0.00 0.00 54 1009.7
20260504182208 72 343 4.3 6.1 0.00 0.00 0.00 53 1009.6
20260504182129 72 344 4.3 6.1 0.00 0.00 0.00 52 1009.4
20260504182008 72 341 3.5 6.1 0.00 0.00 0.00 52 1009.7
20260504181908 72 340 1.7 6.1 0.00 0.00 0.00 53 1009.8
20260504181829 72 340 1.7 7.0 0.00 0.00 0.00 53 1009.8
20260504181708 72 334 1.7 7.0 0.00 0.00 0.00 54 1009.8
20260504181629 72 334 2.6 7.0 0.00 0.00 0.00 53 1009.8
20260504181507 72 333 3.5 7.8 0.00 0.00 0.00 52 1009.9
20260504181407 72 334 3.5 7.8 0.00 0.00 0.00 52 1009.9
20260504181329 72 335 3.5 7.8 0.00 0.00 0.00 52 1009.7
20260504181208 72 336 3.5 7.8 0.00 0.00 0.00 52 1009.8
20260504181108 72 333 1.7 7.8 0.00 0.00 0.00 53 1009.7
20260504181008 72 332 2.6 7.8 0.00 0.00 0.00 52 1009.8
20260504180929 72 330 3.5 7.8 0.00 0.00 0.00 53 1010.0
20260504180829 72 330 3.5 7.8 0.00 0.00 0.00 52 1009.8
20260504180708 72 335 3.5 7.8 0.00 0.00 0.00 52 1009.9
20260504180608 72 335 1.7 7.8 0.00 0.00 0.00 52 1010.0
20260504180508 72 338 3.5 7.8 0.00 0.00 0.00 53 1010.0
20260504180407 72 338 2.6 7.8 0.00 0.00 0.00 52 1010.1
20260504180308 72 338 1.7 7.8 0.00 0.00 0.00 52 1010.0
20260504180229 72 338 1.7 7.8 0.00 0.00 0.00 52 1010.0
20260504180108 72 348 3.5 7.8 0.00 0.00 0.00 52 1010.0
20260504180008 72 348 2.6 7.8 0.00 0.00 0.00 52 1010.1
20260504175908 71 350 1.7 7.8 0.00 0.00 0.00 54 1010.1
20260504175829 71 350 1.7 7.8 0.00 0.00 0.00 54 1010.1
20260504175707 71 348 2.6 7.8 0.00 0.00 0.00 54 1010.0
20260504175629 71 351 3.5 7.8 0.00 0.00 0.00 54 1010.0
20260504175529 71 346 2.6 7.8 0.00 0.00 0.00 54 1010.1
20260504175408 71 342 4.3 7.0 0.00 0.00 0.00 53 1010.2
20260504175308 71 344 3.5 7.0 0.00 0.00 0.00 53 1010.1
20260504175208 71 341 5.2 9.6 0.00 0.00 0.00 52 1010.1
20260504175107 71 337 3.5 9.6 0.00 0.00 0.00 53 1010.1
20260504175007 71 343 3.5 9.6 0.00 0.00 0.00 53 1010.2
20260504174907 71 342 3.5 9.6 0.00 0.00 0.00 53 1010.3
20260504174808 71 342 3.5 9.6 0.00 0.00 0.00 53 1010.1
20260504174708 71 342 2.6 9.6 0.00 0.00 0.00 54 1010.2
20260504174608 71 338 3.5 9.6 0.00 0.00 0.00 54 1010.1
20260504174508 71 339 5.2 9.6 0.00 0.00 0.00 53 1010.2
20260504174429 71 341 4.3 9.6 0.00 0.00 0.00 54 1010.0
20260504174329 71 343 3.5 9.6 0.00 0.00 0.00 54 1010.2
20260504174207 71 343 5.2 9.6 0.00 0.00 0.00 54 1010.4
20260504174108 71 342 3.5 7.8 0.00 0.00 0.00 54 1010.4
20260504174008 71 341 5.2 7.8 0.00 0.00 0.00 53 1010.2
20260504173908 70 343 4.3 7.0 0.00 0.00 0.00 53 1010.3
20260504173807 70 341 4.3 7.0 0.00 0.00 0.00 52 1010.3
20260504173729 71 340 3.5 7.0 0.00 0.00 0.00 53 1010.3
20260504173608 71 344 5.2 7.0 0.00 0.00 0.00 52 1010.2
20260504173507 71 343 3.5 6.1 0.00 0.00 0.00 52 1010.3